Wetterdaten: Freitag, 29.09.2017
Datum Zeit Temp. Aussen Temp. o. S. +5cm Feuchte Auss BlattFeu 1 Luftdruck Regen Sonnenschein Regendauer Solar Windben Empfang
29.09.2017 00:00 17,4 C 16,7 C 15,0 C 93 % 10 lf 1021,7 hPa 0,0 l/m 0 min 0 min 0 W/m 4,2 km/h (1 Bft) 95,74 %
29.09.2017 00:02 17,4 C 16,7 C 15,0 C 93 % 10 lf 1021,8 hPa 0,0 l/m 0 min 0 min 0 W/m 8,4 km/h (2 Bft) 97,56 %
29.09.2017 00:04 17,4 C 16,7 C 15,0 C 93 % 9 lf 1021,8 hPa 0,0 l/m 0 min 0 min 0 W/m 8,4 km/h (2 Bft) 93,62 %
29.09.2017 00:08 17,4 C 16,7 C 15,0 C 93 % 6 lf 1021,8 hPa 0,0 l/m 0 min 0 min 0 W/m 8,4 km/h (2 Bft) 97,87 %
29.09.2017 00:10 17,3 C 16,7 C 15,0 C 93 % 5 lf 1021,7 hPa 0,0 l/m 0 min 0 min 0 W/m 4,2 km/h (1 Bft) 97,87 %
29.09.2017 00:12 17,3 C 16,7 C 15,0 C 94 % 4 lf 1021,7 hPa 0,0 l/m 0 min 0 min 0 W/m 6,3 km/h (2 Bft) 93,62 %
29.09.2017 00:14 17,3 C 16,7 C 15,0 C 93 % 4 lf 1021,7 hPa 0,0 l/m 0 min 0 min 0 W/m 4,2 km/h (1 Bft) 97,83 %
29.09.2017 00:16 17,3 C 16,7 C 15,0 C 93 % 4 lf 1021,7 hPa 0,0 l/m 0 min 0 min 0 W/m 6,3 km/h (2 Bft) 97,87 %
29.09.2017 00:18 17,3 C 16,7 C 15,0 C 93 % 3 lf 1021,6 hPa 0,0 l/m 0 min 0 min 0 W/m 6,3 km/h (2 Bft) 100,00 %
29.09.2017 00:20 17,3 C 16,7 C 15,0 C 94 % 3 lf 1021,7 hPa 0,0 l/m 0 min 0 min 0 W/m 4,2 km/h (1 Bft) 100,00 %
29.09.2017 00:22 17,3 C 16,7 C 15,0 C 94 % 3 lf 1021,6 hPa 0,0 l/m 0 min 0 min 0 W/m 6,3 km/h (2 Bft) 97,87 %
29.09.2017 00:24 17,3 C 16,7 C 15,0 C 94 % 2 lf 1021,6 hPa 0,0 l/m 0 min 0 min 0 W/m 8,4 km/h (2 Bft) 97,87 %
29.09.2017 00:26 17,3 C 16,7 C 15,0 C 94 % 2 lf 1021,6 hPa 0,0 l/m 0 min 0 min 0 W/m 8,4 km/h (2 Bft) 100,00 %
29.09.2017 00:28 17,2 C 16,7 C 15,0 C 94 % 1 lf 1021,6 hPa 0,0 l/m 0 min 0 min 0 W/m 6,3 km/h (2 Bft) 97,87 %
29.09.2017 00:30 17,2 C 16,7 C 15,0 C 94 % 1 lf 1021,6 hPa 0,0 l/m 0 min 0 min 0 W/m 4,2 km/h (1 Bft) 97,87 %
29.09.2017 00:32 17,2 C 16,7 C 15,0 C 94 % 1 lf 1021,6 hPa 0,0 l/m 0 min 0 min 0 W/m 4,2 km/h (1 Bft) 100,00 %
29.09.2017 00:34 17,2 C 16,7 C 15,0 C 94 % 1 lf 1021,6 hPa 0,0 l/m 0 min 0 min 0 W/m 4,2 km/h (1 Bft) 100,00 %
29.09.2017 00:36 17,2 C 16,7 C 15,0 C 94 % 1 lf 1021,6 hPa 0,0 l/m 0 min 0 min 0 W/m 4,2 km/h (1 Bft) 100,00 %
29.09.2017 00:38 17,2 C 16,7 C 15,0 C 94 % 1 lf 1021,7 hPa 0,0 l/m 0 min 0 min 0 W/m 6,3 km/h (2 Bft) 100,00 %
29.09.2017 00:40 17,2 C 16,7 C 15,0 C 94 % 1 lf 1021,7 hPa 0,0 l/m 0 min 0 min 0 W/m 8,4 km/h (2 Bft) 100,00 %
29.09.2017 00:42 17,2 C 16,7 C 15,0 C 94 % 1 lf 1021,7 hPa 0,0 l/m 0 min 0 min 0 W/m 6,3 km/h (2 Bft) 100,00 %
29.09.2017 00:44 17,2 C 16,7 C 15,0 C 94 % 1 lf 1021,6 hPa 0,0 l/m 0 min 0 min 0 W/m 6,3 km/h (2 Bft) 100,00 %
29.09.2017 00:46 17,2 C 16,7 C 15,0 C 94 % 1 lf 1021,7 hPa 0,0 l/m 0 min 0 min 0 W/m 10,5 km/h (2 Bft) 95,74 %
29.09.2017 00:48 17,1 C 16,7 C 15,0 C 94 % 1 lf 1021,6 hPa 0,0 l/m 0 min 0 min 0 W/m 12,6 km/h (3 Bft) 97,83 %
29.09.2017 00:50 17,1 C 16,7 C 15,0 C 94 % 0 lf 1021,6 hPa 0,0 l/m 0 min 0 min 0 W/m 10,5 km/h (2 Bft) 100,00 %
29.09.2017 00:52 17,1 C 16,7 C 15,0 C 94 % 0 lf 1021,6 hPa 0,0 l/m 0 min 0 min 0 W/m 10,5 km/h (2 Bft) 100,00 %
29.09.2017 00:54 17,1 C 16,7 C 15,0 C 95 % 0 lf 1021,7 hPa 0,0 l/m 0 min 0 min 0 W/m 12,6 km/h (3 Bft) 100,00 %
29.09.2017 00:56 17,1 C 16,7 C 15,0 C 95 % 0 lf 1021,6 hPa 0,0 l/m 0 min 0 min 0 W/m 6,3 km/h (2 Bft) 97,87 %
29.09.2017 00:58 17,1 C 16,7 C 15,0 C 95 % 0 lf 1021,6 hPa 0,0 l/m 0 min 0 min 0 W/m 6,3 km/h (2 Bft) 100,00 %
29.09.2017 01:00 17,1 C 16,7 C 15,0 C 95 % 0 lf 1021,6 hPa 0,0 l/m 0 min 0 min 0 W/m 12,6 km/h (3 Bft) 100,00 %
29.09.2017 01:02 17,1 C 16,7 C 15,0 C 95 % 0 lf 1021,6 hPa 0,0 l/m 0 min 0 min 0 W/m 8,4 km/h (2 Bft) 97,87 %
29.09.2017 01:04 17,1 C 16,7 C 15,0 C 95 % 0 lf 1021,6 hPa 0,0 l/m 0 min 0 min 0 W/m 16,7 km/h (3 Bft) 95,74 %
29.09.2017 01:06 17,1 C 16,7 C 15,0 C 95 % 0 lf 1021,5 hPa 0,0 l/m 0 min 0 min 0 W/m 12,6 km/h (3 Bft) 95,74 %
29.09.2017 01:08 17,1 C 16,7 C 15,0 C 95 % 0 lf 1021,6 hPa 0,0 l/m 0 min 0 min 0 W/m 12,6 km/h (3 Bft) 95,74 %
29.09.2017 01:10 17,1 C 16,7 C 15,0 C 95 % 0 lf 1021,6 hPa 0,0 l/m 0 min 0 min 0 W/m 14,6 km/h (3 Bft) 95,74 %
29.09.2017 01:12 17,1 C 16,7 C 15,6 C 95 % 0 lf 1021,6 hPa 0,0 l/m 0 min 0 min 0 W/m 12,6 km/h (3 Bft) 95,65 %
29.09.2017 01:14 17,1 C 16,7 C 15,6 C 95 % 0 lf 1021,6 hPa 0,0 l/m 0 min 0 min 0 W/m 12,6 km/h (3 Bft) 95,74 %
29.09.2017 01:16 17,1 C 16,7 C 15,0 C 95 % 0 lf 1021,5 hPa 0,0 l/m 0 min 0 min 0 W/m 10,5 km/h (2 Bft) 95,74 %
29.09.2017 01:18 17,1 C 16,7 C 15,0 C 95 % 1 lf 1021,4 hPa 0,0 l/m 0 min 0 min 0 W/m 8,4 km/h (2 Bft) 95,74 %
29.09.2017 01:20 17,1 C 16,7 C 15,0 C 95 % 1 lf 1021,4 hPa 0,0 l/m 0 min 0 min 0 W/m 12,6 km/h (3 Bft) 95,74 %
29.09.2017 01:22 17,1 C 16,7 C 15,0 C 95 % 1 lf 1021,4 hPa 0,0 l/m 0 min 0 min 0 W/m 8,4 km/h (2 Bft) 93,62 %
29.09.2017 01:24 17,0 C 16,7 C 15,0 C 95 % 1 lf 1021,4 hPa 0,0 l/m 0 min 0 min 0 W/m 10,5 km/h (2 Bft) 95,65 %
29.09.2017 01:26 17,0 C 16,7 C 15,0 C 95 % 3 lf 1021,4 hPa 0,0 l/m 0 min 0 min 0 W/m 8,4 km/h (2 Bft) 93,62 %
29.09.2017 01:28 17,0 C 16,7 C 15,0 C 95 % 3 lf 1021,4 hPa 0,0 l/m 0 min 0 min 0 W/m 14,6 km/h (3 Bft) 91,49 %
29.09.2017 01:30 17,0 C 16,7 C 15,0 C 95 % 2 lf 1021,4 hPa 0,0 l/m 0 min 0 min 0 W/m 8,4 km/h (2 Bft) 93,62 %
29.09.2017 01:32 17,0 C 16,7 C 15,0 C 95 % 2 lf 1021,4 hPa 0,0 l/m 0 min 0 min 0 W/m 10,5 km/h (2 Bft) 93,62 %
29.09.2017 01:34 17,1 C 16,7 C 15,0 C 95 % 2 lf 1021,4 hPa 0,0 l/m 0 min 0 min 0 W/m 12,6 km/h (3 Bft) 95,74 %
29.09.2017 01:36 17,0 C 16,1 C 15,0 C 95 % 2 lf 1021,4 hPa 0,0 l/m 0 min 0 min 0 W/m 10,5 km/h (2 Bft) 93,48 %
29.09.2017 01:38 17,1 C 16,1 C 15,0 C 95 % 3 lf 1021,4 hPa 0,0 l/m 0 min 2 min 0 W/m 10,5 km/h (2 Bft) 95,74 %
29.09.2017 01:40 17,0 C 16,1 C 15,0 C 95 % 15 lf 1021,4 hPa 0,0 l/m 0 min 2 min 0 W/m 8,4 km/h (2 Bft) 91,49 %
29.09.2017 01:42 17,0 C 16,1 C 15,0 C 95 % 15 lf 1021,4 hPa 0,0 l/m 0 min 2 min 0 W/m 8,4 km/h (2 Bft) 93,62 %
29.09.2017 01:44 17,0 C 16,1 C 15,0 C 95 % 15 lf 1021,4 hPa 0,0 l/m 0 min 2 min 0 W/m 8,4 km/h (2 Bft) 93,62 %
29.09.2017 01:46 17,0 C 16,1 C 15,0 C 95 % 15 lf 1021,4 hPa 0,2 l/m 0 min 2 min 0 W/m 6,3 km/h (2 Bft) 91,49 %
29.09.2017 01:48 17,0 C 16,1 C 15,0 C 95 % 15 lf 1021,4 hPa 0,0 l/m 0 min 2 min 0 W/m 6,3 km/h (2 Bft) 95,65 %
29.09.2017 01:50 17,0 C 16,1 C 15,0 C 95 % 15 lf 1021,3 hPa 0,0 l/m 0 min 2 min 0 W/m 4,2 km/h (1 Bft) 93,62 %
29.09.2017 01:52 17,0 C 16,1 C 15,0 C 95 % 15 lf 1021,3 hPa 0,0 l/m 0 min 2 min 0 W/m 6,3 km/h (2 Bft) 95,74 %
29.09.2017 01:54 17,0 C 16,1 C 15,0 C 95 % 15 lf 1021,3 hPa 0,0 l/m 0 min 2 min 0 W/m 4,2 km/h (1 Bft) 95,74 %
29.09.2017 01:56 17,0 C 16,1 C 15,0 C 95 % 15 lf 1021,3 hPa 0,0 l/m 0 min 2 min 0 W/m 2,1 km/h (1 Bft) 95,74 %
29.09.2017 01:58 17,0 C 16,1 C 15,0 C 95 % 15 lf 1021,3 hPa 0,2 l/m 0 min 2 min 0 W/m 6,3 km/h (2 Bft) 95,65 %
29.09.2017 02:00 17,0 C 16,1 C 15,0 C 95 % 15 lf 1021,3 hPa 0,0 l/m 0 min 2 min 0 W/m 6,3 km/h (2 Bft) 97,87 %
29.09.2017 02:02 17,0 C 16,1 C 15,0 C 95 % 15 lf 1021,2 hPa 0,0 l/m 0 min 0 min 0 W/m 4,2 km/h (1 Bft) 97,87 %
29.09.2017 02:04 17,0 C 16,1 C 15,0 C 95 % 15 lf 1021,2 hPa 0,0 l/m 0 min 0 min 0 W/m 4,2 km/h (1 Bft) 97,87 %
29.09.2017 02:06 17,0 C 16,1 C 15,0 C 95 % 15 lf 1021,1 hPa 0,0 l/m 0 min 0 min 0 W/m 6,3 km/h (2 Bft) 97,87 %
29.09.2017 02:08 16,9 C 16,1 C 15,0 C 95 % 15 lf 1021,1 hPa 0,0 l/m 0 min 0 min 0 W/m 6,3 km/h (2 Bft) 95,74 %
29.09.2017 02:10 16,9 C 15,6 C 15,0 C 95 % 15 lf 1021,1 hPa 0,0 l/m 0 min 0 min 0 W/m 2,1 km/h (1 Bft) 97,83 %
29.09.2017 02:12 16,9 C 15,6 C 15,0 C 95 % 15 lf 1021,0 hPa 0,0 l/m 0 min 0 min 0 W/m 4,2 km/h (1 Bft) 97,87 %
29.09.2017 02:14 16,9 C 15,6 C 15,0 C 95 % 15 lf 1021,0 hPa 0,0 l/m 0 min 0 min 0 W/m 4,2 km/h (1 Bft) 97,87 %
29.09.2017 02:16 16,9 C 15,6 C 15,0 C 95 % 15 lf 1021,1 hPa 0,0 l/m 0 min 0 min 0 W/m 4,2 km/h (1 Bft) 100,00 %
29.09.2017 02:18 16,9 C 15,6 C 15,0 C 95 % 15 lf 1021,1 hPa 0,0 l/m 0 min 0 min 0 W/m 2,1 km/h (1 Bft) 100,00 %
29.09.2017 02:20 16,9 C 16,1 C 15,0 C 95 % 15 lf 1021,1 hPa 0,0 l/m 0 min 0 min 0 W/m 4,2 km/h (1 Bft) 97,87 %
29.09.2017 02:22 16,9 C 15,6 C 15,0 C 95 % 15 lf 1021,1 hPa 0,0 l/m 0 min 2 min 0 W/m 4,2 km/h (1 Bft) 97,83 %
29.09.2017 02:24 16,9 C 16,1 C 15,0 C 95 % 15 lf 1021,1 hPa 0,0 l/m 0 min 2 min 0 W/m 4,2 km/h (1 Bft) 97,87 %
29.09.2017 02:26 16,9 C 15,6 C 15,0 C 95 % 15 lf 1021,1 hPa 0,0 l/m 0 min 2 min 0 W/m 4,2 km/h (1 Bft) 97,87 %
29.09.2017 02:28 16,9 C 15,6 C 15,0 C 95 % 15 lf 1021,1 hPa 0,0 l/m 0 min 0 min 0 W/m 4,2 km/h (1 Bft) 93,62 %
29.09.2017 02:30 16,9 C 15,6 C 15,0 C 95 % 15 lf 1021,1 hPa 0,0 l/m 0 min 0 min 0 W/m 4,2 km/h (1 Bft) 97,87 %
29.09.2017 02:32 16,9 C 15,6 C 15,0 C 95 % 15 lf 1021,1 hPa 0,0 l/m 0 min 0 min 0 W/m 6,3 km/h (2 Bft) 97,87 %
29.09.2017 02:34 16,9 C 15,6 C 15,0 C 96 % 15 lf 1021,1 hPa 0,0 l/m 0 min 0 min 0 W/m 4,2 km/h (1 Bft) 97,83 %
29.09.2017 02:36 16,9 C 15,6 C 15,0 C 96 % 15 lf 1021,0 hPa 0,0 l/m 0 min 0 min 0 W/m 4,2 km/h (1 Bft) 97,87 %
29.09.2017 02:38 16,9 C 15,6 C 15,0 C 96 % 15 lf 1021,0 hPa 0,0 l/m 0 min 0 min 0 W/m 4,2 km/h (1 Bft) 97,87 %
29.09.2017 02:40 16,8 C 15,6 C 15,0 C 96 % 15 lf 1021,0 hPa 0,0 l/m 0 min 0 min 0 W/m 6,3 km/h (2 Bft) 97,87 %
29.09.2017 02:42 16,8 C 15,6 C 15,0 C 96 % 15 lf 1021,0 hPa 0,0 l/m 0 min 0 min 0 W/m 4,2 km/h (1 Bft) 95,74 %
29.09.2017 02:44 16,8 C 15,6 C 15,0 C 96 % 15 lf 1020,9 hPa 0,0 l/m 0 min 0 min 0 W/m 4,2 km/h (1 Bft) 95,74 %
29.09.2017 02:46 16,8 C 15,6 C 15,0 C 96 % 15 lf 1020,9 hPa 0,0 l/m 0 min 0 min 0 W/m 4,2 km/h (1 Bft) 97,83 %
29.09.2017 02:48 16,8 C 15,6 C 15,0 C 96 % 15 lf 1020,8 hPa 0,0 l/m 0 min 0 min 0 W/m 4,2 km/h (1 Bft) 97,87 %
29.09.2017 02:50 16,8 C 15,6 C 15,0 C 96 % 15 lf 1020,8 hPa 0,0 l/m 0 min 0 min 0 W/m 2,1 km/h (1 Bft) 97,87 %
29.09.2017 02:52 16,8 C 16,1 C 15,0 C 96 % 15 lf 1020,8 hPa 0,0 l/m 0 min 0 min 0 W/m 0,0 km/h (0 Bft) 95,74 %
29.09.2017 02:54 16,8 C 16,1 C 15,0 C 96 % 15 lf 1020,8 hPa 0,0 l/m 0 min 0 min 0 W/m 0,0 km/h (0 Bft) 97,87 %
29.09.2017 02:56 16,8 C 15,6 C 15,0 C 96 % 15 lf 1020,8 hPa 0,0 l/m 0 min 0 min 0 W/m 0,0 km/h (0 Bft) 97,87 %
29.09.2017 02:58 16,8 C 15,6 C 15,0 C 96 % 15 lf 1020,9 hPa 0,0 l/m 0 min 0 min 0 W/m 0,0 km/h (0 Bft) 97,83 %
29.09.2017 03:00 16,8 C 15,6 C 15,0 C 96 % 15 lf 1020,9 hPa 0,0 l/m 0 min 0 min 0 W/m 0,0 km/h (0 Bft) 97,87 %
29.09.2017 03:02 16,8 C 15,6 C 15,0 C 96 % 15 lf 1020,9 hPa 0,0 l/m 0 min 0 min 0 W/m 0,0 km/h (0 Bft) 97,87 %
29.09.2017 03:04 16,8 C 15,6 C 15,0 C 96 % 15 lf 1020,9 hPa 0,0 l/m 0 min 0 min 0 W/m 0,0 km/h (0 Bft) 97,87 %
29.09.2017 03:06 16,8 C 15,6 C 15,0 C 96 % 15 lf 1020,9 hPa 0,0 l/m 0 min 0 min 0 W/m 0,0 km/h (0 Bft) 97,87 %
29.09.2017 03:08 16,7 C 15,6 C 15,0 C 96 % 15 lf 1020,9 hPa 0,0 l/m 0 min 0 min 0 W/m 0,0 km/h (0 Bft) 97,87 %
29.09.2017 03:10 16,7 C 15,6 C 15,0 C 96 % 15 lf 1021,0 hPa 0,0 l/m 0 min 0 min 0 W/m 4,2 km/h (1 Bft) 95,65 %
29.09.2017 03:12 16,7 C 15,6 C 15,0 C 96 % 15 lf 1021,0 hPa 0,0 l/m 0 min 0 min 0 W/m 4,2 km/h (1 Bft) 97,87 %
29.09.2017 03:14 16,7 C 15,6 C 15,0 C 96 % 15 lf 1020,9 hPa 0,0 l/m 0 min 2 min 0 W/m 6,3 km/h (2 Bft) 95,74 %
29.09.2017 03:16 16,7 C 15,6 C 15,0 C 96 % 15 lf 1020,9 hPa 0,0 l/m 0 min 2 min 0 W/m 6,3 km/h (2 Bft) 97,87 %
29.09.2017 03:18 16,7 C 15,6 C 15,0 C 96 % 15 lf 1020,9 hPa 0,0 l/m 0 min 2 min 0 W/m 8,4 km/h (2 Bft) 95,74 %
29.09.2017 03:20 16,7 C 15,6 C 15,0 C 96 % 15 lf 1021,0 hPa 0,0 l/m 0 min 2 min 0 W/m 8,4 km/h (2 Bft) 95,65 %
29.09.2017 03:22 16,7 C 15,6 C 15,0 C 96 % 15 lf 1021,0 hPa 0,0 l/m 0 min 2 min 0 W/m 10,5 km/h (2 Bft) 97,87 %
29.09.2017 03:24 16,7 C 15,6 C 15,0 C 96 % 15 lf 1021,0 hPa 0,0 l/m 0 min 0 min 0 W/m 6,3 km/h (2 Bft) 100,00 %
29.09.2017 03:26 16,7 C 15,6 C 15,0 C 96 % 15 lf 1021,0 hPa 0,0 l/m 0 min 0 min 0 W/m 6,3 km/h (2 Bft) 100,00 %
29.09.2017 03:28 16,7 C 15,6 C 15,0 C 96 % 15 lf 1021,1 hPa 0,0 l/m 0 min 2 min 0 W/m 6,3 km/h (2 Bft) 97,87 %
29.09.2017 03:30 16,7 C 15,6 C 15,0 C 96 % 15 lf 1021,1 hPa 0,0 l/m 0 min 2 min 0 W/m 8,4 km/h (2 Bft) 100,00 %
29.09.2017 03:32 16,6 C 15,6 C 15,0 C 96 % 15 lf 1021,0 hPa 0,0 l/m 0 min 0 min 0 W/m 8,4 km/h (2 Bft) 97,83 %
29.09.2017 03:34 16,6 C 15,6 C 15,0 C 96 % 15 lf 1021,0 hPa 0,0 l/m 0 min 0 min 0 W/m 6,3 km/h (2 Bft) 95,74 %
29.09.2017 03:36 16,6 C 15,6 C 15,0 C 96 % 15 lf 1021,0 hPa 0,0 l/m 0 min 0 min 0 W/m 6,3 km/h (2 Bft) 97,87 %
29.09.2017 03:38 16,6 C 15,6 C 15,0 C 96 % 15 lf 1020,9 hPa 0,0 l/m 0 min 0 min 0 W/m 6,3 km/h (2 Bft) 93,62 %
29.09.2017 03:40 16,6 C 15,6 C 15,0 C 97 % 15 lf 1020,9 hPa 0,0 l/m 0 min 2 min 0 W/m 4,2 km/h (1 Bft) 97,87 %
29.09.2017 03:42 16,6 C 15,6 C 15,0 C 97 % 15 lf 1020,9 hPa 0,0 l/m 0 min 0 min 0 W/m 10,5 km/h (2 Bft) 97,87 %
29.09.2017 03:44 16,6 C 15,6 C 15,0 C 97 % 15 lf 1020,9 hPa 0,0 l/m 0 min 0 min 0 W/m 8,4 km/h (2 Bft) 93,48 %
29.09.2017 03:46 16,6 C 15,6 C 15,0 C 97 % 15 lf 1020,9 hPa 0,0 l/m 0 min 0 min 0 W/m 6,3 km/h (2 Bft) 93,62 %
29.09.2017 03:48 16,6 C 15,6 C 15,0 C 97 % 15 lf 1020,9 hPa 0,0 l/m 0 min 0 min 0 W/m 6,3 km/h (2 Bft) 95,74 %
29.09.2017 03:50 16,6 C 15,6 C 15,0 C 97 % 15 lf 1020,9 hPa 0,0 l/m 0 min 0 min 0 W/m 6,3 km/h (2 Bft) 95,74 %
29.09.2017 03:52 16,6 C 15,6 C 15,0 C 97 % 15 lf 1020,9 hPa 0,0 l/m 0 min 0 min 0 W/m 6,3 km/h (2 Bft) 93,62 %
29.09.2017 03:54 16,6 C 15,6 C 15,0 C 97 % 15 lf 1020,8 hPa 0,0 l/m 0 min 0 min 0 W/m 4,2 km/h (1 Bft) 93,62 %
29.09.2017 03:56 16,6 C 15,6 C 15,0 C 97 % 15 lf 1020,8 hPa 0,0 l/m 0 min 0 min 0 W/m 6,3 km/h (2 Bft) 95,65 %
29.09.2017 03:58 16,6 C 15,6 C 15,0 C 97 % 15 lf 1020,8 hPa 0,0 l/m 0 min 0 min 0 W/m 6,3 km/h (2 Bft) 93,62 %
29.09.2017 04:00 16,5 C 15,6 C 15,0 C 97 % 15 lf 1020,8 hPa 0,0 l/m 0 min 0 min 0 W/m 6,3 km/h (2 Bft) 95,74 %
29.09.2017 04:02 16,5 C 15,6 C 15,0 C 97 % 15 lf 1020,8 hPa 0,0 l/m 0 min 0 min 0 W/m 4,2 km/h (1 Bft) 94,29 %
29.09.2017 04:04 16,5 C 15,6 C 15,0 C 97 % 15 lf 1020,8 hPa 0,0 l/m 0 min 0 min 0 W/m 4,2 km/h (1 Bft) 95,74 %
29.09.2017 04:06 16,5 C 15,6 C 15,0 C 97 % 15 lf 1020,8 hPa 0,0 l/m 0 min 0 min 0 W/m 6,3 km/h (2 Bft) 95,74 %
29.09.2017 04:08 16,5 C 15,6 C 15,0 C 97 % 15 lf 1020,7 hPa 0,0 l/m 0 min 0 min 0 W/m 6,3 km/h (2 Bft) 95,65 %
29.09.2017 04:10 16,5 C 15,6 C 15,0 C 97 % 15 lf 1020,7 hPa 0,0 l/m 0 min 0 min 0 W/m 4,2 km/h (1 Bft) 97,87 %
29.09.2017 04:12 16,5 C 15,6 C 15,0 C 97 % 15 lf 1020,7 hPa 0,0 l/m 0 min 0 min 0 W/m 0,0 km/h (0 Bft) 93,62 %
29.09.2017 04:14 16,5 C 15,6 C 15,0 C 97 % 15 lf 1020,7 hPa 0,0 l/m 0 min 0 min 0 W/m 0,0 km/h (0 Bft) 93,62 %
29.09.2017 04:16 16,5 C 15,6 C 15,0 C 97 % 15 lf 1020,7 hPa 0,0 l/m 0 min 0 min 0 W/m 0,0 km/h (0 Bft) 91,49 %
29.09.2017 04:18 16,5 C 15,6 C 15,0 C 97 % 15 lf 1020,7 hPa 0,0 l/m 0 min 0 min 0 W/m 0,0 km/h (0 Bft) 95,74 %
29.09.2017 04:20 16,4 C 15,6 C 15,0 C 97 % 15 lf 1020,7 hPa 0,0 l/m 0 min 0 min 0 W/m 0,0 km/h (0 Bft) 93,48 %
29.09.2017 04:22 16,5 C 15,6 C 15,0 C 97 % 15 lf 1020,6 hPa 0,0 l/m 0 min 0 min 0 W/m 0,0 km/h (0 Bft) 95,74 %
29.09.2017 04:24 16,4 C 15,6 C 15,0 C 97 % 15 lf 1020,7 hPa 0,0 l/m 0 min 0 min 0 W/m 0,0 km/h (0 Bft) 95,74 %
29.09.2017 04:26 16,4 C 15,6 C 15,0 C 97 % 15 lf 1020,6 hPa 0,0 l/m 0 min 0 min 0 W/m 0,0 km/h (0 Bft) 95,74 %
29.09.2017 04:28 16,4 C 15,6 C 15,0 C 97 % 15 lf 1020,6 hPa 0,0 l/m 0 min 0 min 0 W/m 4,2 km/h (1 Bft) 95,74 %
29.09.2017 04:30 16,4 C 15,6 C 15,0 C 97 % 15 lf 1020,6 hPa 0,0 l/m 0 min 0 min 0 W/m 8,4 km/h (2 Bft) 95,74 %
29.09.2017 04:32 16,4 C 15,6 C 15,0 C 97 % 15 lf 1020,5 hPa 0,0 l/m 0 min 0 min 0 W/m 6,3 km/h (2 Bft) 93,48 %
29.09.2017 04:34 16,4 C 15,6 C 15,0 C 97 % 15 lf 1020,6 hPa 0,0 l/m 0 min 0 min 0 W/m 8,4 km/h (2 Bft) 97,87 %
29.09.2017 04:36 16,4 C 15,6 C 15,0 C 97 % 15 lf 1020,5 hPa 0,0 l/m 0 min 0 min 0 W/m 6,3 km/h (2 Bft) 97,87 %
29.09.2017 04:38 16,4 C 15,6 C 15,0 C 97 % 15 lf 1020,6 hPa 0,0 l/m 0 min 0 min 0 W/m 6,3 km/h (2 Bft) 93,62 %
29.09.2017 04:40 16,4 C 15,6 C 15,0 C 97 % 15 lf 1020,5 hPa 0,0 l/m 0 min 0 min 0 W/m 10,5 km/h (2 Bft) 95,74 %
29.09.2017 04:42 16,4 C 15,6 C 15,0 C 97 % 15 lf 1020,5 hPa 0,0 l/m 0 min 0 min 0 W/m 6,3 km/h (2 Bft) 95,74 %
29.09.2017 04:44 16,4 C 15,6 C 14,4 C 97 % 15 lf 1020,6 hPa 0,0 l/m 0 min 0 min 0 W/m 6,3 km/h (2 Bft) 91,30 %
29.09.2017 04:46 16,4 C 15,6 C 14,4 C 97 % 15 lf 1020,6 hPa 0,0 l/m 0 min 0 min 0 W/m 4,2 km/h (1 Bft) 97,87 %
29.09.2017 04:48 16,4 C 15,6 C 14,4 C 97 % 15 lf 1020,5 hPa 0,0 l/m 0 min 0 min 0 W/m 4,2 km/h (1 Bft) 97,87 %
29.09.2017 04:50 16,4 C 15,6 C 14,4 C 97 % 15 lf 1020,5 hPa 0,0 l/m 0 min 0 min 0 W/m 6,3 km/h (2 Bft) 95,74 %
29.09.2017 04:52 16,4 C 15,6 C 14,4 C 97 % 15 lf 1020,6 hPa 0,0 l/m 0 min 0 min 0 W/m 6,3 km/h (2 Bft) 97,87 %
29.09.2017 04:54 16,4 C 15,6 C 15,0 C 97 % 15 lf 1020,6 hPa 0,0 l/m 0 min 0 min 0 W/m 6,3 km/h (2 Bft) 100,00 %
29.09.2017 04:56 16,4 C 15,6 C 15,0 C 97 % 15 lf 1020,5 hPa 0,0 l/m 0 min 0 min 0 W/m 6,3 km/h (2 Bft) 100,00 %
29.09.2017 04:58 16,4 C 15,6 C 15,0 C 97 % 15 lf 1020,6 hPa 0,0 l/m 0 min 0 min 0 W/m 6,3 km/h (2 Bft) 100,00 %
29.09.2017 05:00 16,4 C 15,6 C 15,0 C 97 % 15 lf 1020,6 hPa 0,0 l/m 0 min 0 min 0 W/m 2,1 km/h (1 Bft) 93,62 %
29.09.2017 05:02 16,4 C 15,6 C 15,0 C 97 % 15 lf 1020,6 hPa 0,0 l/m 0 min 0 min 0 W/m 4,2 km/h (1 Bft) 97,87 %
29.09.2017 05:04 16,4 C 15,6 C 15,0 C 97 % 15 lf 1020,6 hPa 0,0 l/m 0 min 0 min 0 W/m 6,3 km/h (2 Bft) 100,00 %
29.09.2017 05:06 16,4 C 15,6 C 15,0 C 97 % 15 lf 1020,6 hPa 0,0 l/m 0 min 0 min 0 W/m 6,3 km/h (2 Bft) 100,00 %
29.09.2017 05:08 16,4 C 15,6 C 15,0 C 97 % 15 lf 1020,5 hPa 0,0 l/m 0 min 0 min 0 W/m 10,5 km/h (2 Bft) 100,00 %
29.09.2017 05:10 16,4 C 15,6 C 15,0 C 97 % 15 lf 1020,5 hPa 0,0 l/m 0 min 0 min 0 W/m 4,2 km/h (1 Bft) 100,00 %
29.09.2017 05:12 16,4 C 15,6 C 15,0 C 97 % 15 lf 1020,6 hPa 0,0 l/m 0 min 0 min 0 W/m 4,2 km/h (1 Bft) 100,00 %
29.09.2017 05:14 16,4 C 15,6 C 14,4 C 97 % 15 lf 1020,5 hPa 0,0 l/m 0 min 0 min 0 W/m 4,2 km/h (1 Bft) 100,00 %
29.09.2017 05:16 16,4 C 15,6 C 14,4 C 97 % 15 lf 1020,5 hPa 0,0 l/m 0 min 0 min 0 W/m 6,3 km/h (2 Bft) 100,00 %
29.09.2017 05:18 16,3 C 15,6 C 14,4 C 97 % 15 lf 1020,5 hPa 0,0 l/m 0 min 0 min 0 W/m 6,3 km/h (2 Bft) 100,00 %
29.09.2017 05:20 16,3 C 15,6 C 14,4 C 97 % 15 lf 1020,5 hPa 0,0 l/m 0 min 0 min 0 W/m 10,5 km/h (2 Bft) 100,00 %
29.09.2017 05:22 16,3 C 15,6 C 14,4 C 97 % 15 lf 1020,5 hPa 0,0 l/m 0 min 0 min 0 W/m 4,2 km/h (1 Bft) 97,87 %
29.09.2017 05:24 16,3 C 15,6 C 14,4 C 97 % 15 lf 1020,5 hPa 0,0 l/m 0 min 0 min 0 W/m 4,2 km/h (1 Bft) 97,87 %
29.09.2017 05:26 16,3 C 15,6 C 14,4 C 97 % 15 lf 1020,4 hPa 0,0 l/m 0 min 0 min 0 W/m 6,3 km/h (2 Bft) 100,00 %
29.09.2017 05:28 16,3 C 15,6 C 14,4 C 97 % 15 lf 1020,5 hPa 0,0 l/m 0 min 0 min 0 W/m 6,3 km/h (2 Bft) 100,00 %
29.09.2017 05:30 16,3 C 15,6 C 14,4 C 97 % 15 lf 1020,5 hPa 0,0 l/m 0 min 0 min 0 W/m 6,3 km/h (2 Bft) 100,00 %
29.09.2017 05:32 16,3 C 15,6 C 14,4 C 97 % 15 lf 1020,5 hPa 0,0 l/m 0 min 0 min 0 W/m 6,3 km/h (2 Bft) 97,87 %
29.09.2017 05:34 16,3 C 15,6 C 14,4 C 98 % 15 lf 1020,5 hPa 0,0 l/m 0 min 0 min 0 W/m 4,2 km/h (1 Bft) 97,87 %
29.09.2017 05:35 16,3 C 15,6 C 14,4 C 98 % 15 lf 1020,5 hPa 0,0 l/m 0 min 0 min 0 W/m 6,3 km/h (2 Bft) 100,00 %
29.09.2017 05:42 16,3 C 15,6 C 13,9 C 98 % 15 lf 1020,5 hPa 0,0 l/m 0 min 0 min 0 W/m 4,2 km/h (1 Bft) 97,14 %
29.09.2017 05:44 16,3 C 15,6 C 13,9 C 98 % 15 lf 1020,6 hPa 0,0 l/m 0 min 0 min 0 W/m 6,3 km/h (2 Bft) 100,00 %
29.09.2017 05:46 16,3 C 15,6 C 13,9 C 98 % 15 lf 1020,5 hPa 0,0 l/m 0 min 0 min 0 W/m 6,3 km/h (2 Bft) 98,28 %
29.09.2017 05:48 16,2 C 15,6 C 13,9 C 98 % 15 lf 1020,5 hPa 0,0 l/m 0 min 0 min 0 W/m 4,2 km/h (1 Bft) 97,87 %
29.09.2017 05:50 16,2 C 15,6 C 13,9 C 97 % 15 lf 1020,5 hPa 0,0 l/m 0 min 0 min 0 W/m 6,3 km/h (2 Bft) 97,87 %
29.09.2017 05:52 16,2 C 15,6 C 13,9 C 97 % 15 lf 1020,5 hPa 0,0 l/m 0 min 0 min 0 W/m 6,3 km/h (2 Bft) 97,14 %
29.09.2017 05:54 16,2 C 15,6 C 13,9 C 97 % 15 lf 1020,5 hPa 0,0 l/m 0 min 0 min 0 W/m 6,3 km/h (2 Bft) 98,28 %
29.09.2017 05:56 16,2 C 15,6 C 13,9 C 97 % 15 lf 1020,5 hPa 0,0 l/m 0 min 0 min 0 W/m 4,2 km/h (1 Bft) 97,87 %
29.09.2017 05:58 16,2 C 15,6 C 13,9 C 97 % 15 lf 1020,5 hPa 0,0 l/m 0 min 0 min 0 W/m 4,2 km/h (1 Bft) 97,87 %
29.09.2017 06:00 16,2 C 15,6 C 13,9 C 97 % 15 lf 1020,5 hPa 0,0 l/m 0 min 0 min 0 W/m 6,3 km/h (2 Bft) 94,29 %
29.09.2017 06:02 16,1 C 15,6 C 14,4 C 97 % 15 lf 1020,6 hPa 0,0 l/m 0 min 0 min 0 W/m 6,3 km/h (2 Bft) 95,74 %
29.09.2017 06:04 16,1 C 15,6 C 14,4 C 97 % 15 lf 1020,6 hPa 0,0 l/m 0 min 0 min 0 W/m 4,2 km/h (1 Bft) 94,92 %
29.09.2017 06:06 16,1 C 15,6 C 14,4 C 97 % 15 lf 1020,6 hPa 0,0 l/m 0 min 0 min 0 W/m 6,3 km/h (2 Bft) 91,43 %
29.09.2017 06:10 16,1 C 15,6 C 14,4 C 97 % 15 lf 1020,5 hPa 0,0 l/m 0 min 0 min 0 W/m 6,3 km/h (2 Bft) 96,97 %
29.09.2017 06:12 16,1 C 15,6 C 14,4 C 97 % 15 lf 1020,5 hPa 0,0 l/m 0 min 0 min 0 W/m 4,2 km/h (1 Bft) 95,74 %
29.09.2017 06:14 16,1 C 15,6 C 14,4 C 98 % 15 lf 1020,5 hPa 0,0 l/m 0 min 0 min 0 W/m 4,2 km/h (1 Bft) 97,87 %
29.09.2017 06:16 16,1 C 15,6 C 14,4 C 98 % 15 lf 1020,5 hPa 0,0 l/m 0 min 0 min 0 W/m 4,2 km/h (1 Bft) 97,87 %
29.09.2017 06:18 16,1 C 15,6 C 14,4 C 98 % 15 lf 1020,5 hPa 0,0 l/m 0 min 0 min 0 W/m 4,2 km/h (1 Bft) 95,74 %
29.09.2017 06:20 16,1 C 15,6 C 14,4 C 98 % 15 lf 1020,5 hPa 0,0 l/m 0 min 0 min 0 W/m 6,3 km/h (2 Bft) 98,28 %
29.09.2017 06:22 16,1 C 15,6 C 14,4 C 98 % 15 lf 1020,6 hPa 0,0 l/m 0 min 0 min 0 W/m 6,3 km/h (2 Bft) 97,14 %
29.09.2017 06:24 16,1 C 15,6 C 14,4 C 98 % 15 lf 1020,5 hPa 0,0 l/m 0 min 0 min 0 W/m 8,4 km/h (2 Bft) 97,87 %
29.09.2017 06:26 16,1 C 15,6 C 14,4 C 98 % 15 lf 1020,5 hPa 0,0 l/m 0 min 0 min 0 W/m 6,3 km/h (2 Bft) 97,87 %
29.09.2017 06:28 16,1 C 15,6 C 14,4 C 98 % 15 lf 1020,5 hPa 0,0 l/m 0 min 0 min 0 W/m 6,3 km/h (2 Bft) 95,74 %
29.09.2017 06:30 16,0 C 15,6 C 14,4 C 98 % 15 lf 1020,5 hPa 0,0 l/m 0 min 0 min 0 W/m 6,3 km/h (2 Bft) 95,74 %
29.09.2017 06:32 16,0 C 15,6 C 14,4 C 98 % 15 lf 1020,5 hPa 0,0 l/m 0 min 0 min 0 W/m 6,3 km/h (2 Bft) 97,87 %
29.09.2017 06:34 16,0 C 15,6 C 14,4 C 98 % 15 lf 1020,4 hPa 0,0 l/m 0 min 0 min 0 W/m 4,2 km/h (1 Bft) 97,83 %
29.09.2017 06:36 16,0 C 15,6 C 14,4 C 98 % 15 lf 1020,5 hPa 0,0 l/m 0 min 0 min 0 W/m 6,3 km/h (2 Bft) 93,62 %
29.09.2017 06:38 16,0 C 15,6 C 14,4 C 98 % 15 lf 1020,4 hPa 0,0 l/m 0 min 0 min 0 W/m 6,3 km/h (2 Bft) 91,49 %
29.09.2017 06:40 16,0 C 15,6 C 14,4 C 98 % 15 lf 1020,5 hPa 0,0 l/m 0 min 0 min 0 W/m 4,2 km/h (1 Bft) 95,74 %
29.09.2017 06:42 16,0 C 15,6 C 14,4 C 98 % 15 lf 1020,4 hPa 0,0 l/m 0 min 0 min 0 W/m 6,3 km/h (2 Bft) 95,74 %
29.09.2017 06:44 16,0 C 15,6 C 14,4 C 98 % 15 lf 1020,4 hPa 0,0 l/m 0 min 0 min 0 W/m 4,2 km/h (1 Bft) 95,74 %
29.09.2017 06:46 16,0 C 15,6 C 14,4 C 98 % 15 lf 1020,5 hPa 0,0 l/m 0 min 0 min 0 W/m 8,4 km/h (2 Bft) 95,65 %
29.09.2017 06:48 16,0 C 15,6 C 14,4 C 98 % 15 lf 1020,4 hPa 0,0 l/m 0 min 0 min 0 W/m 8,4 km/h (2 Bft) 93,62 %
29.09.2017 06:50 16,0 C 15,6 C 14,4 C 98 % 15 lf 1020,5 hPa 0,0 l/m 0 min 0 min 0 W/m 8,4 km/h (2 Bft) 94,92 %
29.09.2017 06:52 16,0 C 15,6 C 14,4 C 98 % 15 lf 1020,5 hPa 0,0 l/m 0 min 0 min 0 W/m 6,3 km/h (2 Bft) 97,14 %
29.09.2017 06:54 16,0 C 15,6 C 14,4 C 98 % 15 lf 1020,4 hPa 0,0 l/m 0 min 0 min 0 W/m 6,3 km/h (2 Bft) 93,62 %
29.09.2017 06:56 16,0 C 15,6 C 14,4 C 98 % 15 lf 1020,4 hPa 0,0 l/m 0 min 0 min 0 W/m 6,3 km/h (2 Bft) 91,49 %
29.09.2017 06:58 16,0 C 15,6 C 14,4 C 98 % 15 lf 1020,4 hPa 0,0 l/m 0 min 0 min 0 W/m 6,3 km/h (2 Bft) 95,65 %
29.09.2017 07:00 16,0 C 15,6 C 14,4 C 98 % 15 lf 1020,4 hPa 0,0 l/m 0 min 0 min 0 W/m 6,3 km/h (2 Bft) 95,74 %
29.09.2017 07:02 16,0 C 15,6 C 14,4 C 98 % 15 lf 1020,4 hPa 0,0 l/m 0 min 0 min 0 W/m 4,2 km/h (1 Bft) 95,74 %
29.09.2017 07:04 16,0 C 15,6 C 14,4 C 98 % 15 lf 1020,4 hPa 0,0 l/m 0 min 0 min 0 W/m 6,3 km/h (2 Bft) 93,62 %
29.09.2017 07:06 16,0 C 15,6 C 14,4 C 98 % 15 lf 1020,5 hPa 0,0 l/m 0 min 0 min 0 W/m 4,2 km/h (1 Bft) 95,74 %
29.09.2017 07:08 16,0 C 15,6 C 14,4 C 98 % 15 lf 1020,5 hPa 0,0 l/m 0 min 0 min 0 W/m 8,4 km/h (2 Bft) 93,48 %
29.09.2017 07:10 16,0 C 15,6 C 14,4 C 98 % 15 lf 1020,5 hPa 0,0 l/m 0 min 0 min 0 W/m 6,3 km/h (2 Bft) 93,62 %
29.09.2017 07:12 16,0 C 15,6 C 14,4 C 98 % 15 lf 1020,5 hPa 0,0 l/m 0 min 0 min 0 W/m 4,2 km/h (1 Bft) 93,62 %
29.09.2017 07:14 16,0 C 15,6 C 14,4 C 98 % 15 lf 1020,5 hPa 0,0 l/m 0 min 0 min 0 W/m 4,2 km/h (1 Bft) 93,62 %
29.09.2017 07:16 16,0 C 15,6 C 14,4 C 98 % 15 lf 1020,5 hPa 0,0 l/m 0 min 0 min 0 W/m 4,2 km/h (1 Bft) 93,62 %
29.09.2017 07:18 16,0 C 15,6 C 14,4 C 98 % 15 lf 1020,6 hPa 0,0 l/m 0 min 0 min 522 W/m 4,2 km/h (1 Bft) 93,62 %
29.09.2017 07:20 16,0 C 15,6 C 14,4 C 98 % 15 lf 1020,5 hPa 0,0 l/m 0 min 0 min 517 W/m 4,2 km/h (1 Bft) 96,55 %
29.09.2017 07:22 16,1 C 15,6 C 14,4 C 98 % 15 lf 1020,5 hPa 0,0 l/m 0 min 0 min 511 W/m 4,2 km/h (1 Bft) 91,43 %
29.09.2017 07:24 16,1 C 15,6 C 14,4 C 98 % 15 lf 1020,5 hPa 0,0 l/m 0 min 0 min 512 W/m 4,2 km/h (1 Bft) 95,74 %
29.09.2017 07:26 16,1 C 15,6 C 14,4 C 98 % 15 lf 1020,5 hPa 0,0 l/m 0 min 0 min 507 W/m 4,2 km/h (1 Bft) 93,62 %
29.09.2017 07:28 16,1 C 15,6 C 14,4 C 98 % 15 lf 1020,5 hPa 0,0 l/m 0 min 0 min 511 W/m 4,2 km/h (1 Bft) 97,87 %
29.09.2017 07:30 16,1 C 15,6 C 14,4 C 98 % 15 lf 1020,5 hPa 0,0 l/m 0 min 0 min 514 W/m 4,2 km/h (1 Bft) 93,62 %
29.09.2017 07:32 16,1 C 15,6 C 14,4 C 98 % 15 lf 1020,5 hPa 0,0 l/m 0 min 0 min 517 W/m 4,2 km/h (1 Bft) 95,65 %
29.09.2017 07:34 16,1 C 15,6 C 14,4 C 98 % 15 lf 1020,5 hPa 0,0 l/m 0 min 0 min 518 W/m 4,2 km/h (1 Bft) 93,62 %
29.09.2017 07:36 16,1 C 15,6 C 14,4 C 98 % 15 lf 1020,5 hPa 0,0 l/m 0 min 0 min 516 W/m 6,3 km/h (2 Bft) 95,74 %
29.09.2017 07:38 16,0 C 15,6 C 14,4 C 98 % 15 lf 1020,4 hPa 0,0 l/m 0 min 0 min 3 W/m 6,3 km/h (2 Bft) 95,74 %
29.09.2017 07:40 16,1 C 15,6 C 13,9 C 98 % 15 lf 1020,5 hPa 0,0 l/m 0 min 0 min 9 W/m 6,3 km/h (2 Bft) 93,62 %
29.09.2017 07:42 16,0 C 15,6 C 13,9 C 98 % 15 lf 1020,5 hPa 0,0 l/m 0 min 0 min 15 W/m 6,3 km/h (2 Bft) 95,74 %
29.09.2017 07:44 16,0 C 15,6 C 14,4 C 98 % 15 lf 1020,6 hPa 0,0 l/m 2 min 0 min 20 W/m 6,3 km/h (2 Bft) 95,65 %
29.09.2017 07:46 16,0 C 15,6 C 14,4 C 98 % 15 lf 1020,6 hPa 0,0 l/m 2 min 0 min 26 W/m 8,4 km/h (2 Bft) 95,74 %
29.09.2017 07:48 16,0 C 15,6 C 14,4 C 98 % 15 lf 1020,6 hPa 0,0 l/m 2 min 0 min 32 W/m 6,3 km/h (2 Bft) 91,49 %
29.09.2017 07:50 16,0 C 15,6 C 14,4 C 98 % 15 lf 1020,6 hPa 0,0 l/m 2 min 0 min 38 W/m 6,3 km/h (2 Bft) 95,74 %
29.09.2017 07:52 16,0 C 15,6 C 14,4 C 98 % 15 lf 1020,7 hPa 0,0 l/m 2 min 0 min 43 W/m 6,3 km/h (2 Bft) 95,74 %
29.09.2017 07:54 16,0 C 15,6 C 14,4 C 98 % 15 lf 1020,7 hPa 0,0 l/m 2 min 0 min 49 W/m 6,3 km/h (2 Bft) 97,87 %
29.09.2017 07:56 16,0 C 15,6 C 14,4 C 98 % 15 lf 1020,6 hPa 0,0 l/m 2 min 0 min 55 W/m 6,3 km/h (2 Bft) 95,65 %
29.09.2017 07:58 16,0 C 15,6 C 14,4 C 98 % 15 lf 1020,6 hPa 0,0 l/m 2 min 0 min 61 W/m 4,2 km/h (1 Bft) 97,87 %
29.09.2017 08:00 16,0 C 15,6 C 14,4 C 98 % 15 lf 1020,5 hPa 0,0 l/m 2 min 0 min 66 W/m 6,3 km/h (2 Bft) 95,74 %
29.09.2017 08:02 16,0 C 15,6 C 14,4 C 98 % 15 lf 1020,5 hPa 0,0 l/m 2 min 0 min 72 W/m 6,3 km/h (2 Bft) 97,87 %
29.09.2017 08:04 16,0 C 15,6 C 14,4 C 98 % 15 lf 1020,5 hPa 0,0 l/m 2 min 0 min 78 W/m 12,6 km/h (3 Bft) 97,87 %
29.09.2017 08:06 16,0 C 15,6 C 14,4 C 98 % 15 lf 1020,5 hPa 0,0 l/m 2 min 0 min 83 W/m 6,3 km/h (2 Bft) 100,00 %
29.09.2017 08:08 16,0 C 15,6 C 13,9 C 98 % 15 lf 1020,5 hPa 0,0 l/m 2 min 0 min 89 W/m 10,5 km/h (2 Bft) 97,83 %
29.09.2017 08:10 16,0 C 15,6 C 14,4 C 98 % 15 lf 1020,5 hPa 0,0 l/m 2 min 0 min 95 W/m 6,3 km/h (2 Bft) 97,87 %
29.09.2017 08:12 16,0 C 15,6 C 14,4 C 98 % 15 lf 1020,5 hPa 0,0 l/m 2 min 0 min 100 W/m 6,3 km/h (2 Bft) 100,00 %
29.09.2017 08:14 16,0 C 15,6 C 14,4 C 98 % 15 lf 1020,5 hPa 0,0 l/m 2 min 0 min 106 W/m 4,2 km/h (1 Bft) 97,87 %
29.09.2017 08:16 16,0 C 15,6 C 13,9 C 98 % 15 lf 1020,5 hPa 0,0 l/m 2 min 0 min 112 W/m 6,3 km/h (2 Bft) 100,00 %
29.09.2017 08:18 16,0 C 15,6 C 13,9 C 98 % 15 lf 1020,5 hPa 0,0 l/m 2 min 0 min 117 W/m 6,3 km/h (2 Bft) 100,00 %
29.09.2017 08:20 16,0 C 15,6 C 13,9 C 98 % 15 lf 1020,5 hPa 0,0 l/m 2 min 0 min 123 W/m 6,3 km/h (2 Bft) 89,13 %
29.09.2017 08:22 16,0 C 15,6 C 13,9 C 98 % 15 lf 1020,5 hPa 0,0 l/m 2 min 0 min 128 W/m 6,3 km/h (2 Bft) 97,87 %
29.09.2017 08:24 16,0 C 15,6 C 13,9 C 98 % 15 lf 1020,5 hPa 0,0 l/m 2 min 0 min 134 W/m 6,3 km/h (2 Bft) 100,00 %
29.09.2017 08:26 16,0 C 15,6 C 13,9 C 98 % 15 lf 1020,5 hPa 0,0 l/m 2 min 0 min 140 W/m 8,4 km/h (2 Bft) 97,87 %
29.09.2017 08:28 16,0 C 15,6 C 13,9 C 98 % 15 lf 1020,4 hPa 0,0 l/m 2 min 0 min 145 W/m 6,3 km/h (2 Bft) 100,00 %
29.09.2017 08:30 16,0 C 15,6 C 13,9 C 98 % 15 lf 1020,4 hPa 0,0 l/m 2 min 0 min 151 W/m 6,3 km/h (2 Bft) 100,00 %
29.09.2017 08:32 15,9 C 15,6 C 13,9 C 98 % 15 lf 1020,4 hPa 0,0 l/m 2 min 0 min 156 W/m 6,3 km/h (2 Bft) 97,83 %
29.09.2017 08:34 15,9 C 15,6 C 13,9 C 98 % 15 lf 1020,4 hPa 0,0 l/m 2 min 0 min 162 W/m 8,4 km/h (2 Bft) 97,87 %
29.09.2017 08:36 15,9 C 15,6 C 13,9 C 98 % 15 lf 1020,4 hPa 0,0 l/m 2 min 0 min 167 W/m 6,3 km/h (2 Bft) 100,00 %
29.09.2017 08:38 15,9 C 15,6 C 13,9 C 98 % 15 lf 1020,5 hPa 0,0 l/m 2 min 0 min 173 W/m 8,4 km/h (2 Bft) 100,00 %
29.09.2017 08:40 15,9 C 16,1 C 13,9 C 98 % 15 lf 1020,4 hPa 0,0 l/m 2 min 0 min 178 W/m 6,3 km/h (2 Bft) 100,00 %
29.09.2017 08:42 15,9 C 15,6 C 13,9 C 98 % 15 lf 1020,4 hPa 0,0 l/m 2 min 0 min 184 W/m 8,4 km/h (2 Bft) 100,00 %
29.09.2017 08:44 15,9 C 15,6 C 13,9 C 98 % 15 lf 1020,5 hPa 0,0 l/m 2 min 0 min 189 W/m 6,3 km/h (2 Bft) 97,87 %
29.09.2017 08:46 15,9 C 15,6 C 13,9 C 98 % 15 lf 1020,5 hPa 0,0 l/m 2 min 0 min 195 W/m 8,4 km/h (2 Bft) 100,00 %
29.09.2017 08:48 15,9 C 15,6 C 13,9 C 98 % 15 lf 1020,5 hPa 0,0 l/m 2 min 0 min 200 W/m 6,3 km/h (2 Bft) 97,87 %
29.09.2017 08:50 15,9 C 15,6 C 13,9 C 98 % 15 lf 1020,5 hPa 0,0 l/m 2 min 0 min 205 W/m 8,4 km/h (2 Bft) 100,00 %
29.09.2017 08:52 15,9 C 15,6 C 13,9 C 98 % 15 lf 1020,5 hPa 0,0 l/m 2 min 0 min 211 W/m 6,3 km/h (2 Bft) 100,00 %
29.09.2017 08:54 15,9 C 15,6 C 13,9 C 98 % 15 lf 1020,6 hPa 0,0 l/m 2 min 0 min 216 W/m 14,6 km/h (3 Bft) 97,83 %
29.09.2017 08:56 15,9 C 15,6 C 13,9 C 98 % 15 lf 1020,5 hPa 0,0 l/m 2 min 0 min 221 W/m 8,4 km/h (2 Bft) 100,00 %
29.09.2017 08:58 15,9 C 16,1 C 13,9 C 98 % 15 lf 1020,5 hPa 0,0 l/m 2 min 0 min 227 W/m 8,4 km/h (2 Bft) 97,87 %
29.09.2017 09:00 15,9 C 16,7 C 14,4 C 98 % 15 lf 1020,5 hPa 0,0 l/m 2 min 0 min 232 W/m 8,4 km/h (2 Bft) 100,00 %
29.09.2017 09:02 15,9 C 17,2 C 14,4 C 98 % 15 lf 1020,5 hPa 0,0 l/m 2 min 0 min 237 W/m 6,3 km/h (2 Bft) 100,00 %
29.09.2017 09:04 16,0 C 17,2 C 14,4 C 99 % 15 lf 1020,5 hPa 0,0 l/m 2 min 0 min 243 W/m 6,3 km/h (2 Bft) 100,00 %
29.09.2017 09:06 16,0 C 17,8 C 14,4 C 99 % 15 lf 1020,5 hPa 0,0 l/m 2 min 0 min 248 W/m 6,3 km/h (2 Bft) 100,00 %
29.09.2017 09:08 16,1 C 18,9 C 14,4 C 99 % 15 lf 1020,5 hPa 0,0 l/m 2 min 0 min 253 W/m 6,3 km/h (2 Bft) 100,00 %
29.09.2017 09:10 16,1 C 18,9 C 14,4 C 99 % 15 lf 1020,6 hPa 0,0 l/m 2 min 0 min 258 W/m 6,3 km/h (2 Bft) 100,00 %
29.09.2017 09:12 16,2 C 18,9 C 14,4 C 99 % 15 lf 1020,6 hPa 0,0 l/m 2 min 0 min 263 W/m 6,3 km/h (2 Bft) 97,87 %
29.09.2017 09:14 16,2 C 19,4 C 14,4 C 99 % 15 lf 1020,6 hPa 0,0 l/m 2 min 0 min 268 W/m 6,3 km/h (2 Bft) 100,00 %
29.09.2017 09:16 16,3 C 20,0 C 15,0 C 99 % 15 lf 1020,6 hPa 0,0 l/m 2 min 0 min 274 W/m 6,3 km/h (2 Bft) 97,87 %
29.09.2017 09:18 16,3 C 20,0 C 15,0 C 99 % 15 lf 1020,5 hPa 0,0 l/m 2 min 0 min 279 W/m 6,3 km/h (2 Bft) 100,00 %
29.09.2017 09:20 16,4 C 20,6 C 15,0 C 99 % 15 lf 1020,5 hPa 0,0 l/m 2 min 0 min 284 W/m 10,5 km/h (2 Bft) 97,87 %
29.09.2017 09:22 16,5 C 20,6 C 15,0 C 99 % 15 lf 1020,5 hPa 0,0 l/m 2 min 0 min 289 W/m 6,3 km/h (2 Bft) 97,87 %
29.09.2017 09:24 16,6 C 20,0 C 15,0 C 99 % 15 lf 1020,5 hPa 0,0 l/m 2 min 0 min 294 W/m 8,4 km/h (2 Bft) 97,87 %
29.09.2017 09:26 16,7 C 20,6 C 15,0 C 99 % 15 lf 1020,5 hPa 0,0 l/m 2 min 0 min 299 W/m 10,5 km/h (2 Bft) 97,87 %
29.09.2017 09:28 16,7 C 20,6 C 15,6 C 99 % 15 lf 1020,5 hPa 0,0 l/m 2 min 0 min 304 W/m 6,3 km/h (2 Bft) 97,87 %
29.09.2017 09:30 16,8 C 21,1 C 15,6 C 99 % 15 lf 1020,5 hPa 0,0 l/m 2 min 0 min 309 W/m 8,4 km/h (2 Bft) 89,13 %
29.09.2017 09:32 16,8 C 21,1 C 15,6 C 99 % 15 lf 1020,5 hPa 0,0 l/m 2 min 0 min 314 W/m 10,5 km/h (2 Bft) 95,74 %
29.09.2017 09:34 16,9 C 20,6 C 15,6 C 99 % 15 lf 1020,5 hPa 0,0 l/m 2 min 0 min 318 W/m 12,6 km/h (3 Bft) 93,62 %
29.09.2017 09:36 16,9 C 21,7 C 15,6 C 99 % 13 lf 1020,5 hPa 0,0 l/m 2 min 0 min 323 W/m 10,5 km/h (2 Bft) 91,49 %
29.09.2017 09:38 17,0 C 22,2 C 15,6 C 99 % 9 lf 1020,5 hPa 0,0 l/m 2 min 0 min 328 W/m 10,5 km/h (2 Bft) 93,62 %
29.09.2017 09:40 17,0 C 21,1 C 16,1 C 99 % 3 lf 1020,6 hPa 0,0 l/m 2 min 0 min 333 W/m 10,5 km/h (2 Bft) 93,62 %
29.09.2017 09:42 17,0 C 21,7 C 16,1 C 99 % 1 lf 1020,6 hPa 0,0 l/m 2 min 0 min 338 W/m 14,6 km/h (3 Bft) 93,48 %
29.09.2017 09:44 17,1 C 22,8 C 16,1 C 99 % 0 lf 1020,6 hPa 0,0 l/m 2 min 0 min 342 W/m 8,4 km/h (2 Bft) 91,49 %
29.09.2017 09:46 17,1 C 22,2 C 16,7 C 99 % 0 lf 1020,6 hPa 0,0 l/m 2 min 0 min 347 W/m 8,4 km/h (2 Bft) 89,36 %
29.09.2017 09:48 17,1 C 22,8 C 16,7 C 99 % 0 lf 1020,5 hPa 0,0 l/m 2 min 0 min 352 W/m 6,3 km/h (2 Bft) 91,49 %
29.09.2017 09:50 17,2 C 22,8 C 16,7 C 99 % 0 lf 1020,6 hPa 0,0 l/m 2 min 0 min 357 W/m 8,4 km/h (2 Bft) 93,62 %
29.09.2017 09:52 17,3 C 23,3 C 16,7 C 99 % 0 lf 1020,5 hPa 0,0 l/m 2 min 0 min 361 W/m 6,3 km/h (2 Bft) 91,30 %
29.09.2017 09:54 17,3 C 23,3 C 16,7 C 99 % 0 lf 1020,5 hPa 0,0 l/m 2 min 0 min 366 W/m 6,3 km/h (2 Bft) 93,62 %
29.09.2017 09:56 17,4 C 21,7 C 17,2 C 99 % 0 lf 1020,5 hPa 0,0 l/m 2 min 0 min 370 W/m 6,3 km/h (2 Bft) 93,62 %
29.09.2017 09:58 17,4 C 20,0 C 17,2 C 99 % 0 lf 1020,4 hPa 0,0 l/m 2 min 0 min 375 W/m 8,4 km/h (2 Bft) 93,62 %
29.09.2017 10:00 17,4 C 20,0 C 17,2 C 99 % 0 lf 1020,4 hPa 0,0 l/m 2 min 0 min 379 W/m 10,5 km/h (2 Bft) 91,49 %
29.09.2017 10:02 17,5 C 20,6 C 17,2 C 99 % 0 lf 1020,4 hPa 0,0 l/m 2 min 0 min 384 W/m 8,4 km/h (2 Bft) 91,49 %
29.09.2017 10:04 17,5 C 21,1 C 17,2 C 99 % 0 lf 1020,3 hPa 0,0 l/m 2 min 0 min 388 W/m 8,4 km/h (2 Bft) 89,13 %
29.09.2017 10:06 17,5 C 21,7 C 17,8 C 99 % 0 lf 1020,3 hPa 0,0 l/m 2 min 0 min 393 W/m 12,6 km/h (3 Bft) 91,49 %
29.09.2017 10:08 17,6 C 22,8 C 17,8 C 99 % 0 lf 1020,3 hPa 0,0 l/m 2 min 0 min 397 W/m 14,6 km/h (3 Bft) 95,74 %
29.09.2017 10:10 17,6 C 23,9 C 17,8 C 99 % 0 lf 1020,3 hPa 0,0 l/m 2 min 0 min 401 W/m 14,6 km/h (3 Bft) 93,62 %
29.09.2017 10:12 17,6 C 23,3 C 17,8 C 99 % 0 lf 1020,3 hPa 0,0 l/m 2 min 0 min 406 W/m 14,6 km/h (3 Bft) 95,74 %
29.09.2017 10:14 17,7 C 22,2 C 17,2 C 99 % 0 lf 1020,3 hPa 0,0 l/m 2 min 0 min 410 W/m 14,6 km/h (3 Bft) 93,62 %
29.09.2017 10:16 17,7 C 22,8 C 17,2 C 98 % 0 lf 1020,3 hPa 0,0 l/m 2 min 0 min 414 W/m 10,5 km/h (2 Bft) 97,83 %
29.09.2017 10:18 17,7 C 22,8 C 17,2 C 98 % 0 lf 1020,2 hPa 0,0 l/m 2 min 0 min 419 W/m 10,5 km/h (2 Bft) 91,49 %
29.09.2017 10:20 17,8 C 22,8 C 17,2 C 98 % 0 lf 1020,3 hPa 0,0 l/m 2 min 0 min 423 W/m 10,5 km/h (2 Bft) 94,92 %
29.09.2017 10:22 17,8 C 24,4 C 17,2 C 98 % 0 lf 1020,3 hPa 0,0 l/m 2 min 0 min 427 W/m 8,4 km/h (2 Bft) 91,43 %
29.09.2017 10:24 17,9 C 25,6 C 17,2 C 98 % 0 lf 1020,2 hPa 0,0 l/m 2 min 0 min 431 W/m 12,6 km/h (3 Bft) 95,74 %
29.09.2017 10:26 18,0 C 25,6 C 17,2 C 98 % 0 lf 1020,2 hPa 0,0 l/m 2 min 0 min 435 W/m 12,6 km/h (3 Bft) 93,62 %
29.09.2017 10:28 18,1 C 25,6 C 17,8 C 98 % 0 lf 1020,2 hPa 0,0 l/m 2 min 0 min 439 W/m 10,5 km/h (2 Bft) 97,83 %
29.09.2017 10:30 18,2 C 25,0 C 17,8 C 98 % 0 lf 1020,2 hPa 0,0 l/m 2 min 0 min 443 W/m 16,7 km/h (3 Bft) 97,87 %
29.09.2017 10:32 18,3 C 26,7 C 18,3 C 97 % 0 lf 1020,1 hPa 0,0 l/m 2 min 0 min 447 W/m 12,6 km/h (3 Bft) 97,87 %
29.09.2017 10:34 18,3 C 27,2 C 18,3 C 97 % 0 lf 1020,2 hPa 0,0 l/m 2 min 0 min 451 W/m 14,6 km/h (3 Bft) 95,74 %
29.09.2017 10:36 18,4 C 26,1 C 19,4 C 96 % 0 lf 1020,2 hPa 0,0 l/m 2 min 0 min 455 W/m 14,6 km/h (3 Bft) 95,74 %
29.09.2017 10:38 18,6 C 27,2 C 19,4 C 96 % 0 lf 1020,2 hPa 0,0 l/m 2 min 0 min 459 W/m 14,6 km/h (3 Bft) 97,87 %
29.09.2017 10:40 18,7 C 28,3 C 20,0 C 95 % 0 lf 1020,2 hPa 0,0 l/m 2 min 0 min 462 W/m 10,5 km/h (2 Bft) 95,65 %
29.09.2017 10:42 18,8 C 25,6 C 20,0 C 94 % 0 lf 1020,1 hPa 0,0 l/m 2 min 0 min 466 W/m 10,5 km/h (2 Bft) 95,74 %
29.09.2017 10:44 18,8 C 24,4 C 20,0 C 93 % 0 lf 1020,1 hPa 0,0 l/m 2 min 0 min 470 W/m 12,6 km/h (3 Bft) 97,87 %
29.09.2017 10:46 18,9 C 25,0 C 20,6 C 93 % 0 lf 1020,1 hPa 0,0 l/m 2 min 0 min 474 W/m 12,6 km/h (3 Bft) 93,62 %
29.09.2017 10:48 19,1 C 25,0 C 21,1 C 91 % 0 lf 1020,1 hPa 0,0 l/m 2 min 0 min 477 W/m 8,4 km/h (2 Bft) 97,87 %
29.09.2017 10:50 19,2 C 24,4 C 21,1 C 91 % 0 lf 1020,0 hPa 0,0 l/m 2 min 0 min 481 W/m 20,9 km/h (4 Bft) 97,87 %
29.09.2017 10:52 19,3 C 23,9 C 20,6 C 90 % 0 lf 1020,0 hPa 0,0 l/m 2 min 0 min 485 W/m 14,6 km/h (3 Bft) 95,65 %
29.09.2017 10:54 19,4 C 24,4 C 20,6 C 89 % 0 lf 1020,0 hPa 0,0 l/m 2 min 0 min 488 W/m 14,6 km/h (3 Bft) 97,87 %
29.09.2017 10:56 19,4 C 25,6 C 20,6 C 89 % 0 lf 1020,0 hPa 0,0 l/m 2 min 0 min 492 W/m 10,5 km/h (2 Bft) 97,87 %
29.09.2017 10:58 19,6 C 25,0 C 21,1 C 88 % 0 lf 1019,9 hPa 0,0 l/m 2 min 0 min 495 W/m 12,6 km/h (3 Bft) 100,00 %
29.09.2017 11:00 19,6 C 25,6 C 21,1 C 88 % 0 lf 1019,9 hPa 0,0 l/m 2 min 0 min 498 W/m 16,7 km/h (3 Bft) 95,74 %
29.09.2017 11:02 19,7 C 25,0 C 21,1 C 87 % 0 lf 1019,8 hPa 0,0 l/m 2 min 0 min 502 W/m 12,6 km/h (3 Bft) 100,00 %
29.09.2017 11:04 19,8 C 26,1 C 21,7 C 87 % 0 lf 1019,8 hPa 0,0 l/m 2 min 0 min 505 W/m 12,6 km/h (3 Bft) 100,00 %
29.09.2017 11:06 19,9 C 26,1 C 21,7 C 86 % 0 lf 1019,8 hPa 0,0 l/m 2 min 0 min 508 W/m 14,6 km/h (3 Bft) 97,87 %
29.09.2017 11:08 20,0 C 27,2 C 22,2 C 86 % 0 lf 1019,8 hPa 0,0 l/m 2 min 0 min 512 W/m 12,6 km/h (3 Bft) 100,00 %
29.09.2017 11:10 20,1 C 27,2 C 22,8 C 86 % 0 lf 1019,8 hPa 0,0 l/m 2 min 0 min 515 W/m 14,6 km/h (3 Bft) 97,87 %
29.09.2017 11:12 20,2 C 26,1 C 22,8 C 86 % 0 lf 1019,8 hPa 0,0 l/m 2 min 0 min 518 W/m 14,6 km/h (3 Bft) 100,00 %
29.09.2017 11:14 20,2 C 25,6 C 22,2 C 85 % 0 lf 1019,7 hPa 0,0 l/m 2 min 0 min 521 W/m 14,6 km/h (3 Bft) 100,00 %
29.09.2017 11:16 20,3 C 25,0 C 21,7 C 84 % 0 lf 1019,8 hPa 0,0 l/m 2 min 0 min 524 W/m 18,8 km/h (3 Bft) 97,83 %
29.09.2017 11:18 20,4 C 26,1 C 21,7 C 84 % 0 lf 1019,8 hPa 0,0 l/m 2 min 0 min 527 W/m 14,6 km/h (3 Bft) 100,00 %
29.09.2017 11:20 20,4 C 25,0 C 21,7 C 84 % 0 lf 1019,7 hPa 0,0 l/m 2 min 0 min 530 W/m 14,6 km/h (3 Bft) 100,00 %
29.09.2017 11:22 20,5 C 24,4 C 21,7 C 84 % 0 lf 1019,8 hPa 0,0 l/m 2 min 0 min 533 W/m 20,9 km/h (4 Bft) 100,00 %
29.09.2017 11:24 20,5 C 23,9 C 21,7 C 83 % 0 lf 1019,7 hPa 0,0 l/m 2 min 0 min 536 W/m 18,8 km/h (3 Bft) 100,00 %
29.09.2017 11:26 20,5 C 23,3 C 21,7 C 83 % 0 lf 1019,8 hPa 0,0 l/m 2 min 0 min 539 W/m 14,6 km/h (3 Bft) 97,83 %
29.09.2017 11:28 20,6 C 23,3 C 21,7 C 83 % 0 lf 1019,7 hPa 0,0 l/m 2 min 0 min 542 W/m 16,7 km/h (3 Bft) 95,74 %
29.09.2017 11:30 20,5 C 23,3 C 21,1 C 82 % 0 lf 1019,7 hPa 0,0 l/m 2 min 0 min 545 W/m 20,9 km/h (4 Bft) 97,87 %
29.09.2017 11:32 20,5 C 23,3 C 21,1 C 82 % 0 lf 1019,8 hPa 0,0 l/m 2 min 0 min 547 W/m 25,1 km/h (4 Bft) 100,00 %
29.09.2017 11:34 20,5 C 23,9 C 21,7 C 82 % 0 lf 1019,8 hPa 0,0 l/m 2 min 0 min 550 W/m 18,8 km/h (3 Bft) 97,87 %
29.09.2017 11:36 20,5 C 23,9 C 22,2 C 82 % 0 lf 1019,8 hPa 0,0 l/m 2 min 0 min 553 W/m 25,1 km/h (4 Bft) 97,87 %
29.09.2017 11:38 20,5 C 23,3 C 22,8 C 82 % 0 lf 1019,7 hPa 0,0 l/m 2 min 0 min 555 W/m 16,7 km/h (3 Bft) 100,00 %
29.09.2017 11:40 20,4 C 23,3 C 22,8 C 82 % 0 lf 1019,7 hPa 0,0 l/m 2 min 0 min 558 W/m 18,8 km/h (3 Bft) 100,00 %
29.09.2017 11:42 20,4 C 24,4 C 23,9 C 83 % 0 lf 1019,7 hPa 0,0 l/m 2 min 0 min 560 W/m 18,8 km/h (3 Bft) 100,00 %
29.09.2017 11:44 20,5 C 26,1 C 23,9 C 83 % 0 lf 1019,6 hPa 0,0 l/m 2 min 0 min 563 W/m 23,0 km/h (4 Bft) 97,87 %
29.09.2017 11:46 20,5 C 24,4 C 23,3 C 82 % 0 lf 1019,7 hPa 0,0 l/m 2 min 0 min 565 W/m 23,0 km/h (4 Bft) 97,87 %
29.09.2017 11:48 20,5 C 24,4 C 23,3 C 82 % 0 lf 1019,7 hPa 0,0 l/m 2 min 0 min 568 W/m 23,0 km/h (4 Bft) 97,87 %
29.09.2017 11:50 20,6 C 24,4 C 23,9 C 82 % 0 lf 1019,6 hPa 0,0 l/m 2 min 0 min 570 W/m 20,9 km/h (4 Bft) 96,55 %
29.09.2017 11:52 20,6 C 23,9 C 23,3 C 82 % 0 lf 1019,7 hPa 0,0 l/m 2 min 0 min 572 W/m 18,8 km/h (3 Bft) 100,00 %
29.09.2017 11:54 20,6 C 24,4 C 23,3 C 82 % 0 lf 1019,7 hPa 0,0 l/m 2 min 0 min 575 W/m 20,9 km/h (4 Bft) 97,87 %
29.09.2017 11:56 20,6 C 25,0 C 23,3 C 81 % 0 lf 1019,6 hPa 0,0 l/m 2 min 0 min 577 W/m 23,0 km/h (4 Bft) 97,87 %
29.09.2017 11:58 20,7 C 24,4 C 23,3 C 81 % 0 lf 1019,6 hPa 0,0 l/m 2 min 0 min 579 W/m 20,9 km/h (4 Bft) 95,74 %
29.09.2017 12:00 20,7 C 23,9 C 23,3 C 81 % 0 lf 1019,5 hPa 0,0 l/m 2 min 0 min 581 W/m 20,9 km/h (4 Bft) 95,74 %
29.09.2017 12:02 20,7 C 24,4 C 22,8 C 81 % 0 lf 1019,4 hPa 0,0 l/m 2 min 0 min 583 W/m 14,6 km/h (3 Bft) 89,13 %
29.09.2017 12:04 20,7 C 25,6 C 22,2 C 81 % 0 lf 1019,4 hPa 0,0 l/m 2 min 0 min 585 W/m 12,6 km/h (3 Bft) 97,87 %
29.09.2017 12:06 20,7 C 25,0 C 22,2 C 81 % 0 lf 1019,4 hPa 0,0 l/m 2 min 0 min 587 W/m 12,6 km/h (3 Bft) 93,62 %
29.09.2017 12:10 20,8 C 24,4 C 23,3 C 81 % 0 lf 1019,3 hPa 0,0 l/m 4 min 0 min 591 W/m 18,8 km/h (3 Bft) 95,88 %
29.09.2017 12:12 20,8 C 25,0 C 23,3 C 81 % 0 lf 1019,3 hPa 0,0 l/m 2 min 0 min 593 W/m 16,7 km/h (3 Bft) 95,65 %
29.09.2017 12:14 20,9 C 25,6 C 23,3 C 82 % 0 lf 1019,2 hPa 0,0 l/m 2 min 0 min 594 W/m 18,8 km/h (3 Bft) 93,62 %
29.09.2017 12:16 20,9 C 25,0 C 23,9 C 81 % 0 lf 1019,2 hPa 0,0 l/m 2 min 0 min 596 W/m 10,5 km/h (2 Bft) 95,74 %
29.09.2017 12:18 20,9 C 25,6 C 23,3 C 81 % 0 lf 1019,2 hPa 0,0 l/m 2 min 0 min 598 W/m 20,9 km/h (4 Bft) 95,74 %
29.09.2017 12:20 21,0 C 26,1 C 23,9 C 81 % 0 lf 1019,2 hPa 0,0 l/m 2 min 0 min 599 W/m 23,0 km/h (4 Bft) 95,74 %
29.09.2017 12:22 21,0 C 26,1 C 23,9 C 81 % 0 lf 1019,2 hPa 0,0 l/m 2 min 0 min 601 W/m 20,9 km/h (4 Bft) 93,62 %
29.09.2017 12:24 21,1 C 25,6 C 23,3 C 80 % 0 lf 1019,1 hPa 0,0 l/m 2 min 0 min 602 W/m 16,7 km/h (3 Bft) 95,65 %
29.09.2017 12:26 21,1 C 25,0 C 23,9 C 80 % 0 lf 1019,1 hPa 0,0 l/m 2 min 0 min 604 W/m 12,6 km/h (3 Bft) 95,74 %
29.09.2017 12:28 21,2 C 26,7 C 23,9 C 81 % 0 lf 1019,1 hPa 0,0 l/m 2 min 0 min 605 W/m 20,9 km/h (4 Bft) 97,87 %
29.09.2017 12:30 21,2 C 26,7 C 23,9 C 81 % 0 lf 1019,1 hPa 0,0 l/m 2 min 0 min 607 W/m 20,9 km/h (4 Bft) 95,74 %
29.09.2017 12:32 21,3 C 27,2 C 24,4 C 81 % 0 lf 1019,1 hPa 0,0 l/m 2 min 0 min 608 W/m 16,7 km/h (3 Bft) 100,00 %
29.09.2017 12:34 21,4 C 26,1 C 24,4 C 80 % 0 lf 1019,1 hPa 0,0 l/m 2 min 0 min 609 W/m 18,8 km/h (3 Bft) 93,62 %
29.09.2017 12:36 21,4 C 27,8 C 23,9 C 80 % 0 lf 1019,0 hPa 0,0 l/m 2 min 0 min 611 W/m 23,0 km/h (4 Bft) 95,65 %
29.09.2017 12:38 21,5 C 26,7 C 23,3 C 79 % 0 lf 1018,9 hPa 0,0 l/m 2 min 0 min 612 W/m 20,9 km/h (4 Bft) 95,74 %
29.09.2017 12:40 21,6 C 26,7 C 23,3 C 78 % 0 lf 1018,9 hPa 0,0 l/m 2 min 0 min 613 W/m 20,9 km/h (4 Bft) 93,62 %
29.09.2017 12:42 21,6 C 26,1 C 23,3 C 77 % 0 lf 1018,9 hPa 0,0 l/m 2 min 0 min 614 W/m 18,8 km/h (3 Bft) 97,87 %
29.09.2017 12:44 21,6 C 26,7 C 22,8 C 77 % 0 lf 1018,9 hPa 0,0 l/m 2 min 0 min 615 W/m 20,9 km/h (4 Bft) 97,87 %
29.09.2017 12:46 21,7 C 27,2 C 22,8 C 78 % 0 lf 1018,9 hPa 0,0 l/m 2 min 0 min 616 W/m 18,8 km/h (3 Bft) 97,87 %
29.09.2017 12:48 21,8 C 27,2 C 22,8 C 77 % 0 lf 1018,8 hPa 0,0 l/m 2 min 0 min 617 W/m 16,7 km/h (3 Bft) 97,83 %
29.09.2017 12:50 21,8 C 27,2 C 22,8 C 77 % 0 lf 1018,9 hPa 0,0 l/m 2 min 0 min 618 W/m 16,7 km/h (3 Bft) 97,87 %
29.09.2017 12:52 21,9 C 26,1 C 22,8 C 77 % 0 lf 1018,8 hPa 0,0 l/m 2 min 0 min 619 W/m 16,7 km/h (3 Bft) 95,74 %
29.09.2017 12:54 21,9 C 27,2 C 22,2 C 77 % 0 lf 1018,9 hPa 0,0 l/m 2 min 0 min 619 W/m 18,8 km/h (3 Bft) 95,74 %
29.09.2017 12:56 21,9 C 26,7 C 22,2 C 76 % 0 lf 1018,7 hPa 0,0 l/m 2 min 0 min 620 W/m 12,6 km/h (3 Bft) 97,87 %
29.09.2017 12:58 22,0 C 26,1 C 22,2 C 76 % 0 lf 1018,7 hPa 0,0 l/m 2 min 0 min 621 W/m 12,6 km/h (3 Bft) 95,74 %
29.09.2017 13:00 22,1 C 27,2 C 22,2 C 76 % 0 lf 1018,7 hPa 0,0 l/m 2 min 0 min 621 W/m 16,7 km/h (3 Bft) 93,48 %
29.09.2017 13:02 22,1 C 27,8 C 22,2 C 77 % 0 lf 1018,7 hPa 0,0 l/m 2 min 0 min 622 W/m 14,6 km/h (3 Bft) 95,74 %
29.09.2017 13:04 22,2 C 27,2 C 22,2 C 77 % 0 lf 1018,7 hPa 0,0 l/m 2 min 0 min 623 W/m 16,7 km/h (3 Bft) 97,87 %
29.09.2017 13:06 22,2 C 27,2 C 22,2 C 76 % 0 lf 1018,7 hPa 0,0 l/m 2 min 0 min 716 W/m 10,5 km/h (2 Bft) 95,74 %
29.09.2017 13:08 22,3 C 27,2 C 22,2 C 76 % 0 lf 1018,6 hPa 0,0 l/m 2 min 0 min 615 W/m 16,7 km/h (3 Bft) 97,87 %
29.09.2017 13:10 22,3 C 26,7 C 22,2 C 76 % 0 lf 1018,7 hPa 0,0 l/m 2 min 0 min 452 W/m 16,7 km/h (3 Bft) 95,74 %
29.09.2017 13:12 22,3 C 26,7 C 21,7 C 76 % 0 lf 1018,6 hPa 0,0 l/m 2 min 0 min 435 W/m 20,9 km/h (4 Bft) 95,65 %
29.09.2017 13:14 22,4 C 26,1 C 22,2 C 76 % 0 lf 1018,6 hPa 0,0 l/m 2 min 0 min 430 W/m 20,9 km/h (4 Bft) 97,87 %
29.09.2017 13:16 22,4 C 25,0 C 21,7 C 75 % 0 lf 1018,6 hPa 0,0 l/m 2 min 0 min 436 W/m 16,7 km/h (3 Bft) 95,74 %
29.09.2017 13:18 22,4 C 25,0 C 21,7 C 75 % 0 lf 1018,6 hPa 0,0 l/m 2 min 0 min 424 W/m 16,7 km/h (3 Bft) 95,74 %
29.09.2017 13:20 22,4 C 25,6 C 21,7 C 75 % 0 lf 1018,5 hPa 0,0 l/m 2 min 0 min 395 W/m 14,6 km/h (3 Bft) 95,74 %
29.09.2017 13:22 22,4 C 25,0 C 22,2 C 76 % 0 lf 1018,6 hPa 0,0 l/m 2 min 0 min 365 W/m 14,6 km/h (3 Bft) 95,74 %
29.09.2017 13:24 22,4 C 25,0 C 21,7 C 75 % 0 lf 1018,5 hPa 0,0 l/m 2 min 0 min 360 W/m 14,6 km/h (3 Bft) 97,83 %
29.09.2017 13:26 22,4 C 25,0 C 21,7 C 76 % 0 lf 1018,5 hPa 0,0 l/m 2 min 0 min 361 W/m 14,6 km/h (3 Bft) 93,62 %
29.09.2017 13:28 22,4 C 25,0 C 22,2 C 76 % 0 lf 1018,5 hPa 0,0 l/m 2 min 0 min 351 W/m 16,7 km/h (3 Bft) 95,74 %
29.09.2017 13:30 22,4 C 25,0 C 22,2 C 76 % 0 lf 1018,5 hPa 0,0 l/m 2 min 0 min 362 W/m 12,6 km/h (3 Bft) 97,87 %
29.09.2017 13:32 22,4 C 25,0 C 22,2 C 76 % 0 lf 1018,5 hPa 0,0 l/m 2 min 0 min 370 W/m 20,9 km/h (4 Bft) 97,87 %
29.09.2017 13:34 22,4 C 25,0 C 22,2 C 76 % 0 lf 1018,4 hPa 0,0 l/m 2 min 0 min 338 W/m 14,6 km/h (3 Bft) 97,83 %
29.09.2017 13:36 22,4 C 24,4 C 22,2 C 76 % 0 lf 1018,4 hPa 0,0 l/m 2 min 0 min 325 W/m 18,8 km/h (3 Bft) 95,74 %
29.09.2017 13:38 22,4 C 24,4 C 22,2 C 76 % 0 lf 1018,4 hPa 0,0 l/m 2 min 0 min 332 W/m 14,6 km/h (3 Bft) 93,62 %
29.09.2017 13:40 22,4 C 24,4 C 22,2 C 76 % 0 lf 1018,4 hPa 0,0 l/m 2 min 0 min 321 W/m 10,5 km/h (2 Bft) 95,74 %
29.09.2017 13:42 22,3 C 24,4 C 22,2 C 76 % 0 lf 1018,4 hPa 0,0 l/m 2 min 0 min 300 W/m 18,8 km/h (3 Bft) 97,87 %
29.09.2017 13:44 22,3 C 24,4 C 22,2 C 76 % 0 lf 1018,4 hPa 0,0 l/m 2 min 0 min 302 W/m 18,8 km/h (3 Bft) 95,74 %
29.09.2017 13:46 22,3 C 23,9 C 22,2 C 76 % 0 lf 1018,4 hPa 0,0 l/m 2 min 0 min 298 W/m 16,7 km/h (3 Bft) 97,83 %
29.09.2017 13:48 22,3 C 24,4 C 22,2 C 77 % 0 lf 1018,4 hPa 0,0 l/m 2 min 0 min 316 W/m 14,6 km/h (3 Bft) 95,74 %
29.09.2017 13:50 22,3 C 24,4 C 22,2 C 76 % 0 lf 1018,4 hPa 0,0 l/m 2 min 0 min 353 W/m 10,5 km/h (2 Bft) 95,74 %
29.09.2017 13:52 22,3 C 25,0 C 22,2 C 76 % 0 lf 1018,4 hPa 0,0 l/m 2 min 0 min 376 W/m 10,5 km/h (2 Bft) 97,87 %
29.09.2017 13:54 22,3 C 25,6 C 22,2 C 77 % 0 lf 1018,4 hPa 0,0 l/m 2 min 0 min 391 W/m 16,7 km/h (3 Bft) 95,74 %
29.09.2017 13:56 22,3 C 25,0 C 22,8 C 77 % 0 lf 1018,4 hPa 0,0 l/m 2 min 0 min 379 W/m 10,5 km/h (2 Bft) 97,87 %
29.09.2017 13:58 22,3 C 25,0 C 22,8 C 77 % 0 lf 1018,3 hPa 0,0 l/m 2 min 0 min 372 W/m 12,6 km/h (3 Bft) 97,83 %
29.09.2017 14:00 22,4 C 25,0 C 22,8 C 76 % 0 lf 1018,3 hPa 0,0 l/m 2 min 0 min 378 W/m 20,9 km/h (4 Bft) 97,87 %
29.09.2017 14:02 22,4 C 24,4 C 22,8 C 76 % 0 lf 1018,3 hPa 0,0 l/m 2 min 0 min 371 W/m 16,7 km/h (3 Bft) 91,49 %
29.09.2017 14:04 22,4 C 24,4 C 22,8 C 76 % 0 lf 1018,3 hPa 0,0 l/m 2 min 0 min 359 W/m 12,6 km/h (3 Bft) 95,74 %
29.09.2017 14:06 22,4 C 25,0 C 22,8 C 76 % 0 lf 1018,3 hPa 0,0 l/m 2 min 0 min 377 W/m 14,6 km/h (3 Bft) 95,74 %
29.09.2017 14:08 22,4 C 25,6 C 22,8 C 76 % 0 lf 1018,2 hPa 0,0 l/m 2 min 0 min 384 W/m 10,5 km/h (2 Bft) 95,74 %
29.09.2017 14:10 22,4 C 25,6 C 22,8 C 76 % 0 lf 1018,2 hPa 0,0 l/m 2 min 0 min 398 W/m 16,7 km/h (3 Bft) 95,65 %
29.09.2017 14:12 22,4 C 25,6 C 22,8 C 76 % 0 lf 1018,2 hPa 0,0 l/m 2 min 0 min 404 W/m 16,7 km/h (3 Bft) 97,87 %
29.09.2017 14:14 22,5 C 26,1 C 22,8 C 76 % 0 lf 1018,2 hPa 0,0 l/m 2 min 0 min 384 W/m 10,5 km/h (2 Bft) 97,87 %
29.09.2017 14:16 22,5 C 26,1 C 22,8 C 76 % 0 lf 1018,2 hPa 0,0 l/m 2 min 0 min 375 W/m 10,5 km/h (2 Bft) 95,74 %
29.09.2017 14:18 22,6 C 25,6 C 22,8 C 76 % 0 lf 1018,3 hPa 0,0 l/m 2 min 0 min 360 W/m 14,6 km/h (3 Bft) 97,87 %
29.09.2017 14:20 22,6 C 26,1 C 22,8 C 76 % 0 lf 1018,2 hPa 0,0 l/m 2 min 0 min 350 W/m 16,7 km/h (3 Bft) 95,74 %
29.09.2017 14:22 22,6 C 26,1 C 22,8 C 76 % 0 lf 1018,2 hPa 0,0 l/m 2 min 0 min 348 W/m 16,7 km/h (3 Bft) 97,83 %
29.09.2017 14:24 22,6 C 25,0 C 22,8 C 75 % 0 lf 1018,2 hPa 0,0 l/m 2 min 0 min 341 W/m 16,7 km/h (3 Bft) 95,74 %
29.09.2017 14:26 22,6 C 25,0 C 22,8 C 75 % 0 lf 1018,1 hPa 0,0 l/m 2 min 0 min 328 W/m 10,5 km/h (2 Bft) 97,87 %
29.09.2017 14:28 22,6 C 25,0 C 22,8 C 76 % 0 lf 1018,1 hPa 0,0 l/m 2 min 0 min 327 W/m 10,5 km/h (2 Bft) 100,00 %
29.09.2017 14:30 22,7 C 25,0 C 22,8 C 76 % 0 lf 1018,0 hPa 0,0 l/m 2 min 0 min 333 W/m 12,6 km/h (3 Bft) 97,87 %
29.09.2017 14:32 22,7 C 25,0 C 22,8 C 76 % 0 lf 1017,9 hPa 0,0 l/m 2 min 0 min 334 W/m 12,6 km/h (3 Bft) 97,87 %
29.09.2017 14:34 22,7 C 25,6 C 22,8 C 76 % 0 lf 1018,0 hPa 0,0 l/m 2 min 0 min 352 W/m 14,6 km/h (3 Bft) 95,65 %
29.09.2017 14:36 22,7 C 25,0 C 23,3 C 77 % 0 lf 1017,8 hPa 0,0 l/m 2 min 0 min 371 W/m 12,6 km/h (3 Bft) 97,87 %
29.09.2017 14:38 22,8 C 25,6 C 23,3 C 76 % 0 lf 1017,9 hPa 0,0 l/m 2 min 0 min 370 W/m 16,7 km/h (3 Bft) 95,74 %
29.09.2017 14:40 22,8 C 25,6 C 23,3 C 76 % 0 lf 1017,8 hPa 0,0 l/m 2 min 0 min 386 W/m 14,6 km/h (3 Bft) 95,74 %
29.09.2017 14:42 22,8 C 26,1 C 23,3 C 76 % 0 lf 1017,9 hPa 0,0 l/m 2 min 0 min 378 W/m 12,6 km/h (3 Bft) 97,87 %
29.09.2017 14:44 22,9 C 26,1 C 23,3 C 76 % 0 lf 1017,8 hPa 0,0 l/m 2 min 0 min 394 W/m 14,6 km/h (3 Bft) 100,00 %
29.09.2017 14:46 22,9 C 26,1 C 23,3 C 75 % 0 lf 1017,8 hPa 0,0 l/m 2 min 0 min 412 W/m 16,7 km/h (3 Bft) 97,83 %
29.09.2017 14:48 22,9 C 25,6 C 23,3 C 74 % 0 lf 1017,9 hPa 0,0 l/m 2 min 0 min 400 W/m 14,6 km/h (3 Bft) 97,87 %
29.09.2017 14:50 22,9 C 25,0 C 23,3 C 74 % 0 lf 1017,8 hPa 0,0 l/m 2 min 0 min 383 W/m 18,8 km/h (3 Bft) 97,87 %
29.09.2017 14:52 22,9 C 25,6 C 23,3 C 74 % 0 lf 1017,8 hPa 0,0 l/m 2 min 0 min 406 W/m 10,5 km/h (2 Bft) 95,74 %
29.09.2017 14:54 22,9 C 25,0 C 23,3 C 75 % 0 lf 1017,8 hPa 0,0 l/m 2 min 0 min 399 W/m 14,6 km/h (3 Bft) 97,96 %
29.09.2017 14:56 23,0 C 25,6 C 23,3 C 75 % 0 lf 1017,8 hPa 0,0 l/m 2 min 0 min 433 W/m 14,6 km/h (3 Bft) 97,87 %
29.09.2017 14:58 23,0 C 26,7 C 23,3 C 75 % 0 lf 1017,7 hPa 0,0 l/m 2 min 0 min 444 W/m 8,4 km/h (2 Bft) 95,74 %
29.09.2017 15:00 23,1 C 26,7 C 23,3 C 75 % 0 lf 1017,7 hPa 0,0 l/m 2 min 0 min 433 W/m 18,8 km/h (3 Bft) 97,87 %
29.09.2017 15:02 23,1 C 27,2 C 23,3 C 75 % 0 lf 1017,7 hPa 0,0 l/m 2 min 0 min 422 W/m 14,6 km/h (3 Bft) 97,87 %
29.09.2017 15:04 23,1 C 27,2 C 23,3 C 75 % 0 lf 1017,6 hPa 0,0 l/m 2 min 0 min 432 W/m 16,7 km/h (3 Bft) 97,83 %
29.09.2017 15:06 23,2 C 26,1 C 22,8 C 74 % 0 lf 1017,6 hPa 0,0 l/m 2 min 0 min 415 W/m 18,8 km/h (3 Bft) 97,87 %
29.09.2017 15:08 23,2 C 26,7 C 22,8 C 74 % 0 lf 1017,6 hPa 0,0 l/m 2 min 0 min 407 W/m 18,8 km/h (3 Bft) 95,74 %
29.09.2017 15:10 23,2 C 26,7 C 22,8 C 74 % 0 lf 1017,6 hPa 0,0 l/m 2 min 0 min 361 W/m 14,6 km/h (3 Bft) 97,87 %
29.09.2017 15:12 23,2 C 26,7 C 22,8 C 74 % 0 lf 1017,6 hPa 0,0 l/m 2 min 0 min 328 W/m 16,7 km/h (3 Bft) 95,74 %
29.09.2017 15:14 23,3 C 26,1 C 22,8 C 74 % 0 lf 1017,6 hPa 0,0 l/m 2 min 0 min 312 W/m 10,5 km/h (2 Bft) 97,87 %
29.09.2017 15:16 23,3 C 25,0 C 22,8 C 74 % 0 lf 1017,6 hPa 0,0 l/m 2 min 0 min 316 W/m 8,4 km/h (2 Bft) 100,00 %
29.09.2017 15:18 23,3 C 25,6 C 22,8 C 74 % 0 lf 1017,6 hPa 0,0 l/m 2 min 0 min 314 W/m 18,8 km/h (3 Bft) 100,00 %
29.09.2017 15:20 23,3 C 26,1 C 22,2 C 74 % 0 lf 1017,6 hPa 0,0 l/m 2 min 0 min 313 W/m 16,7 km/h (3 Bft) 100,00 %
29.09.2017 15:22 23,3 C 26,1 C 22,8 C 74 % 0 lf 1017,6 hPa 0,0 l/m 2 min 0 min 326 W/m 12,6 km/h (3 Bft) 100,00 %
29.09.2017 15:24 23,3 C 25,6 C 22,8 C 74 % 0 lf 1017,6 hPa 0,0 l/m 2 min 0 min 320 W/m 10,5 km/h (2 Bft) 91,49 %
29.09.2017 15:26 23,3 C 25,6 C 22,8 C 74 % 0 lf 1017,6 hPa 0,0 l/m 2 min 0 min 316 W/m 16,7 km/h (3 Bft) 97,87 %
29.09.2017 15:28 23,3 C 25,6 C 22,2 C 74 % 0 lf 1017,6 hPa 0,0 l/m 2 min 0 min 324 W/m 14,6 km/h (3 Bft) 95,65 %
29.09.2017 15:30 23,3 C 25,0 C 22,2 C 74 % 0 lf 1017,6 hPa 0,0 l/m 2 min 0 min 315 W/m 16,7 km/h (3 Bft) 100,00 %
29.09.2017 15:32 23,3 C 25,0 C 22,2 C 74 % 0 lf 1017,6 hPa 0,0 l/m 2 min 0 min 344 W/m 16,7 km/h (3 Bft) 100,00 %
29.09.2017 15:34 23,3 C 25,6 C 22,2 C 74 % 0 lf 1017,6 hPa 0,0 l/m 2 min 0 min 304 W/m 14,6 km/h (3 Bft) 100,00 %
29.09.2017 15:36 23,3 C 25,6 C 22,2 C 74 % 0 lf 1017,6 hPa 0,0 l/m 2 min 0 min 296 W/m 12,6 km/h (3 Bft) 100,00 %
29.09.2017 15:38 23,3 C 25,0 C 22,2 C 74 % 0 lf 1017,6 hPa 0,0 l/m 2 min 0 min 288 W/m 18,8 km/h (3 Bft) 97,87 %
29.09.2017 15:40 23,2 C 25,0 C 22,2 C 74 % 0 lf 1017,6 hPa 0,0 l/m 2 min 0 min 266 W/m 12,6 km/h (3 Bft) 97,83 %
29.09.2017 15:42 23,3 C 26,1 C 22,2 C 74 % 0 lf 1017,6 hPa 0,0 l/m 2 min 0 min 340 W/m 14,6 km/h (3 Bft) 91,49 %
29.09.2017 15:44 23,3 C 26,7 C 22,8 C 75 % 0 lf 1017,5 hPa 0,0 l/m 2 min 0 min 397 W/m 14,6 km/h (3 Bft) 97,87 %
29.09.2017 15:46 23,3 C 27,2 C 22,8 C 75 % 0 lf 1017,6 hPa 0,0 l/m 2 min 0 min 407 W/m 14,6 km/h (3 Bft) 97,87 %
29.09.2017 15:48 23,3 C 26,7 C 22,8 C 74 % 0 lf 1017,6 hPa 0,0 l/m 2 min 0 min 406 W/m 18,8 km/h (3 Bft) 95,74 %
29.09.2017 15:50 23,4 C 26,7 C 22,8 C 74 % 0 lf 1017,6 hPa 0,0 l/m 2 min 0 min 412 W/m 14,6 km/h (3 Bft) 97,87 %
29.09.2017 15:52 23,4 C 27,2 C 22,8 C 74 % 0 lf 1017,6 hPa 0,0 l/m 2 min 0 min 404 W/m 14,6 km/h (3 Bft) 95,65 %
29.09.2017 15:54 23,4 C 27,2 C 22,8 C 74 % 0 lf 1017,5 hPa 0,0 l/m 2 min 0 min 384 W/m 10,5 km/h (2 Bft) 97,87 %
29.09.2017 15:56 23,5 C 26,7 C 22,8 C 74 % 0 lf 1017,5 hPa 0,0 l/m 2 min 0 min 424 W/m 20,9 km/h (4 Bft) 95,74 %
29.09.2017 15:58 23,5 C 26,7 C 22,8 C 73 % 0 lf 1017,4 hPa 0,0 l/m 2 min 0 min 392 W/m 14,6 km/h (3 Bft) 95,74 %
29.09.2017 16:00 23,6 C 27,8 C 23,3 C 74 % 0 lf 1017,5 hPa 0,0 l/m 2 min 0 min 618 W/m 16,7 km/h (3 Bft) 97,87 %
29.09.2017 16:02 23,6 C 27,2 C 23,3 C 74 % 0 lf 1017,4 hPa 0,0 l/m 2 min 0 min 474 W/m 18,8 km/h (3 Bft) 95,74 %
29.09.2017 16:04 23,7 C 26,7 C 22,8 C 74 % 0 lf 1017,3 hPa 0,0 l/m 2 min 0 min 470 W/m 20,9 km/h (4 Bft) 95,65 %
29.09.2017 16:06 23,7 C 24,4 C 22,8 C 73 % 0 lf 1017,4 hPa 0,0 l/m 2 min 0 min 466 W/m 23,0 km/h (4 Bft) 95,74 %
29.09.2017 16:08 23,7 C 25,0 C 22,2 C 73 % 0 lf 1017,3 hPa 0,0 l/m 2 min 0 min 463 W/m 20,9 km/h (4 Bft) 97,87 %
29.09.2017 16:10 23,6 C 25,0 C 22,2 C 73 % 0 lf 1017,3 hPa 0,0 l/m 2 min 0 min 459 W/m 20,9 km/h (4 Bft) 97,87 %
29.09.2017 16:12 23,6 C 24,4 C 22,2 C 73 % 0 lf 1017,2 hPa 0,0 l/m 2 min 0 min 455 W/m 16,7 km/h (3 Bft) 95,74 %
29.09.2017 16:14 23,6 C 24,4 C 22,2 C 73 % 0 lf 1017,2 hPa 0,0 l/m 2 min 0 min 451 W/m 16,7 km/h (3 Bft) 93,62 %
29.09.2017 16:16 23,6 C 23,9 C 22,2 C 73 % 0 lf 1017,2 hPa 0,0 l/m 2 min 0 min 447 W/m 10,5 km/h (2 Bft) 93,48 %
29.09.2017 16:18 23,6 C 23,9 C 22,2 C 73 % 0 lf 1017,2 hPa 0,0 l/m 2 min 0 min 243 W/m 25,1 km/h (4 Bft) 95,74 %
29.09.2017 16:20 23,6 C 23,3 C 22,2 C 73 % 0 lf 1017,1 hPa 0,0 l/m 0 min 0 min 185 W/m 12,6 km/h (3 Bft) 93,62 %
29.09.2017 16:22 23,5 C 23,9 C 22,2 C 74 % 0 lf 1017,1 hPa 0,0 l/m 0 min 0 min 189 W/m 14,6 km/h (3 Bft) 93,62 %
29.09.2017 16:24 23,5 C 23,9 C 22,2 C 74 % 0 lf 1017,1 hPa 0,0 l/m 0 min 0 min 190 W/m 20,9 km/h (4 Bft) 95,74 %
29.09.2017 16:26 23,5 C 23,9 C 22,2 C 74 % 0 lf 1017,0 hPa 0,0 l/m 0 min 0 min 188 W/m 12,6 km/h (3 Bft) 93,48 %
29.09.2017 16:28 23,4 C 23,9 C 22,2 C 74 % 0 lf 1017,1 hPa 0,0 l/m 2 min 0 min 216 W/m 18,8 km/h (3 Bft) 93,62 %
29.09.2017 16:30 23,4 C 25,0 C 22,8 C 75 % 0 lf 1017,2 hPa 0,0 l/m 2 min 0 min 265 W/m 12,6 km/h (3 Bft) 93,62 %
29.09.2017 16:32 23,4 C 26,7 C 22,8 C 75 % 0 lf 1017,2 hPa 0,0 l/m 2 min 0 min 425 W/m 10,5 km/h (2 Bft) 97,87 %
29.09.2017 16:34 23,5 C 27,2 C 23,3 C 75 % 0 lf 1017,1 hPa 0,0 l/m 2 min 0 min 424 W/m 16,7 km/h (3 Bft) 89,36 %
29.09.2017 16:36 23,6 C 27,2 C 23,3 C 75 % 0 lf 1017,1 hPa 0,0 l/m 2 min 0 min 390 W/m 16,7 km/h (3 Bft) 93,62 %
29.09.2017 16:38 23,6 C 26,7 C 23,3 C 75 % 0 lf 1017,0 hPa 0,0 l/m 2 min 0 min 354 W/m 20,9 km/h (4 Bft) 93,48 %
29.09.2017 16:40 23,7 C 26,1 C 22,8 C 74 % 0 lf 1017,0 hPa 0,0 l/m 2 min 0 min 312 W/m 16,7 km/h (3 Bft) 93,62 %
29.09.2017 16:42 23,7 C 26,1 C 22,8 C 74 % 0 lf 1017,0 hPa 0,0 l/m 2 min 0 min 284 W/m 14,6 km/h (3 Bft) 91,49 %
29.09.2017 16:44 23,7 C 25,6 C 22,8 C 74 % 0 lf 1016,9 hPa 0,0 l/m 2 min 0 min 236 W/m 16,7 km/h (3 Bft) 95,74 %
29.09.2017 16:46 23,7 C 25,0 C 22,8 C 74 % 0 lf 1016,9 hPa 0,0 l/m 2 min 0 min 262 W/m 20,9 km/h (4 Bft) 97,87 %
29.09.2017 16:48 23,7 C 25,0 C 22,2 C 74 % 0 lf 1016,8 hPa 0,0 l/m 2 min 0 min 243 W/m 18,8 km/h (3 Bft) 97,87 %
29.09.2017 16:50 23,7 C 24,4 C 22,2 C 74 % 0 lf 1016,8 hPa 0,0 l/m 2 min 0 min 225 W/m 18,8 km/h (3 Bft) 91,30 %
29.09.2017 16:52 23,7 C 24,4 C 22,2 C 74 % 0 lf 1016,8 hPa 0,0 l/m 2 min 0 min 215 W/m 18,8 km/h (3 Bft) 91,49 %
29.09.2017 16:54 23,7 C 23,9 C 22,2 C 74 % 0 lf 1016,8 hPa 0,0 l/m 2 min 0 min 194 W/m 25,1 km/h (4 Bft) 97,87 %
29.09.2017 16:56 23,7 C 23,9 C 22,2 C 74 % 0 lf 1016,7 hPa 0,0 l/m 0 min 0 min 167 W/m 18,8 km/h (3 Bft) 97,87 %
29.09.2017 16:58 23,7 C 23,9 C 22,2 C 74 % 0 lf 1016,7 hPa 0,0 l/m 0 min 0 min 149 W/m 12,6 km/h (3 Bft) 97,87 %
29.09.2017 17:00 23,7 C 23,3 C 21,7 C 74 % 0 lf 1016,7 hPa 0,0 l/m 0 min 0 min 143 W/m 23,0 km/h (4 Bft) 97,87 %
29.09.2017 17:02 23,6 C 23,3 C 21,7 C 74 % 0 lf 1016,7 hPa 0,0 l/m 0 min 0 min 144 W/m 16,7 km/h (3 Bft) 97,83 %
29.09.2017 17:04 23,6 C 23,3 C 21,7 C 74 % 0 lf 1016,7 hPa 0,0 l/m 0 min 0 min 150 W/m 18,8 km/h (3 Bft) 97,87 %
29.09.2017 17:06 23,6 C 23,3 C 21,7 C 74 % 0 lf 1016,7 hPa 0,0 l/m 2 min 0 min 179 W/m 18,8 km/h (3 Bft) 95,74 %
29.09.2017 17:08 23,5 C 23,3 C 21,7 C 74 % 0 lf 1016,6 hPa 0,0 l/m 2 min 0 min 190 W/m 14,6 km/h (3 Bft) 97,87 %
29.09.2017 17:10 23,4 C 23,3 C 21,7 C 74 % 0 lf 1016,6 hPa 0,0 l/m 2 min 0 min 186 W/m 20,9 km/h (4 Bft) 95,74 %
29.09.2017 17:12 23,4 C 23,9 C 21,7 C 75 % 0 lf 1016,5 hPa 0,0 l/m 2 min 0 min 200 W/m 18,8 km/h (3 Bft) 93,02 %
29.09.2017 17:14 23,4 C 23,9 C 22,2 C 75 % 0 lf 1016,5 hPa 0,0 l/m 2 min 0 min 232 W/m 18,8 km/h (3 Bft) 95,74 %
29.09.2017 17:16 23,4 C 23,9 C 22,2 C 75 % 0 lf 1016,5 hPa 0,0 l/m 2 min 0 min 233 W/m 18,8 km/h (3 Bft) 95,74 %
29.09.2017 17:18 23,4 C 23,9 C 22,2 C 75 % 0 lf 1016,5 hPa 0,0 l/m 2 min 0 min 225 W/m 14,6 km/h (3 Bft) 93,48 %
29.09.2017 17:20 23,4 C 23,9 C 22,2 C 75 % 0 lf 1016,5 hPa 0,0 l/m 2 min 0 min 227 W/m 16,7 km/h (3 Bft) 95,74 %
29.09.2017 17:22 23,4 C 23,9 C 22,2 C 75 % 0 lf 1016,5 hPa 0,0 l/m 2 min 0 min 233 W/m 12,6 km/h (3 Bft) 95,74 %
29.09.2017 17:24 23,4 C 23,9 C 22,2 C 75 % 0 lf 1016,5 hPa 0,0 l/m 2 min 0 min 234 W/m 16,7 km/h (3 Bft) 87,23 %
29.09.2017 17:26 23,4 C 23,9 C 22,8 C 75 % 0 lf 1016,5 hPa 0,0 l/m 2 min 0 min 227 W/m 12,6 km/h (3 Bft) 93,62 %
29.09.2017 17:28 23,4 C 23,9 C 22,8 C 75 % 0 lf 1016,5 hPa 0,0 l/m 2 min 0 min 220 W/m 16,7 km/h (3 Bft) 95,74 %
29.09.2017 17:30 23,4 C 23,9 C 22,8 C 75 % 0 lf 1016,5 hPa 0,0 l/m 2 min 0 min 194 W/m 10,5 km/h (2 Bft) 95,65 %
29.09.2017 17:32 23,5 C 23,9 C 22,8 C 76 % 0 lf 1016,5 hPa 0,0 l/m 2 min 0 min 196 W/m 12,6 km/h (3 Bft) 95,74 %
29.09.2017 17:34 23,5 C 23,9 C 22,8 C 76 % 0 lf 1016,5 hPa 0,0 l/m 2 min 0 min 172 W/m 12,6 km/h (3 Bft) 93,62 %
29.09.2017 17:36 23,5 C 23,9 C 22,2 C 75 % 0 lf 1016,5 hPa 0,0 l/m 2 min 0 min 196 W/m 14,6 km/h (3 Bft) 97,87 %
29.09.2017 17:38 23,5 C 23,9 C 22,2 C 75 % 0 lf 1016,6 hPa 0,0 l/m 2 min 0 min 233 W/m 12,6 km/h (3 Bft) 95,74 %
29.09.2017 17:40 23,5 C 23,9 C 22,2 C 75 % 0 lf 1016,5 hPa 0,0 l/m 2 min 0 min 213 W/m 14,6 km/h (3 Bft) 97,87 %
29.09.2017 17:42 23,5 C 23,9 C 22,2 C 75 % 0 lf 1016,5 hPa 0,0 l/m 2 min 0 min 200 W/m 10,5 km/h (2 Bft) 95,65 %
29.09.2017 17:44 23,5 C 23,9 C 22,2 C 75 % 0 lf 1016,5 hPa 0,0 l/m 2 min 0 min 216 W/m 12,6 km/h (3 Bft) 97,87 %
29.09.2017 17:46 23,5 C 23,9 C 22,2 C 75 % 0 lf 1016,5 hPa 0,0 l/m 2 min 0 min 228 W/m 14,6 km/h (3 Bft) 93,62 %
29.09.2017 17:48 23,5 C 23,9 C 22,2 C 75 % 0 lf 1016,5 hPa 0,0 l/m 2 min 0 min 173 W/m 16,7 km/h (3 Bft) 95,74 %
29.09.2017 17:50 23,6 C 23,9 C 22,2 C 75 % 0 lf 1016,5 hPa 0,0 l/m 2 min 0 min 162 W/m 10,5 km/h (2 Bft) 100,00 %
29.09.2017 17:52 23,6 C 23,9 C 22,2 C 75 % 0 lf 1016,5 hPa 0,0 l/m 2 min 0 min 169 W/m 10,5 km/h (2 Bft) 97,87 %
29.09.2017 17:54 23,6 C 23,9 C 22,2 C 75 % 0 lf 1016,4 hPa 0,0 l/m 2 min 0 min 150 W/m 16,7 km/h (3 Bft) 100,00 %
29.09.2017 17:56 23,6 C 23,3 C 22,2 C 75 % 0 lf 1016,4 hPa 0,0 l/m 2 min 0 min 145 W/m 16,7 km/h (3 Bft) 100,00 %
29.09.2017 17:58 23,6 C 23,3 C 22,2 C 75 % 0 lf 1016,4 hPa 0,0 l/m 2 min 0 min 146 W/m 14,6 km/h (3 Bft) 97,87 %
29.09.2017 18:00 23,6 C 23,9 C 22,2 C 75 % 0 lf 1016,3 hPa 0,0 l/m 2 min 0 min 142 W/m 16,7 km/h (3 Bft) 100,00 %
29.09.2017 18:02 23,6 C 23,3 C 22,2 C 75 % 0 lf 1016,3 hPa 0,0 l/m 2 min 0 min 169 W/m 16,7 km/h (3 Bft) 100,00 %
29.09.2017 18:04 23,6 C 23,3 C 22,2 C 75 % 0 lf 1016,3 hPa 0,0 l/m 2 min 0 min 149 W/m 20,9 km/h (4 Bft) 100,00 %
29.09.2017 18:06 23,6 C 23,3 C 22,2 C 75 % 0 lf 1016,4 hPa 0,0 l/m 2 min 0 min 140 W/m 10,5 km/h (2 Bft) 100,00 %
29.09.2017 18:08 23,5 C 23,3 C 22,2 C 75 % 0 lf 1016,3 hPa 0,0 l/m 2 min 0 min 136 W/m 14,6 km/h (3 Bft) 97,87 %
29.09.2017 18:10 23,5 C 23,3 C 22,2 C 76 % 0 lf 1016,3 hPa 0,0 l/m 2 min 0 min 123 W/m 12,6 km/h (3 Bft) 95,74 %
29.09.2017 18:12 23,5 C 23,3 C 21,7 C 76 % 0 lf 1016,3 hPa 0,0 l/m 2 min 0 min 106 W/m 12,6 km/h (3 Bft) 100,00 %
29.09.2017 18:14 23,4 C 23,3 C 21,7 C 76 % 0 lf 1016,3 hPa 0,0 l/m 2 min 0 min 94 W/m 12,6 km/h (3 Bft) 100,00 %
29.09.2017 18:16 23,4 C 23,3 C 21,7 C 76 % 0 lf 1016,3 hPa 0,0 l/m 2 min 0 min 84 W/m 14,6 km/h (3 Bft) 95,65 %
29.09.2017 18:18 23,4 C 22,8 C 21,7 C 76 % 0 lf 1016,3 hPa 0,0 l/m 2 min 0 min 74 W/m 14,6 km/h (3 Bft) 100,00 %
29.09.2017 18:20 23,4 C 22,8 C 21,1 C 76 % 0 lf 1016,3 hPa 0,0 l/m 0 min 0 min 66 W/m 14,6 km/h (3 Bft) 97,87 %
29.09.2017 18:22 23,4 C 22,8 C 21,1 C 76 % 0 lf 1016,3 hPa 0,0 l/m 0 min 0 min 60 W/m 16,7 km/h (3 Bft) 97,87 %
29.09.2017 18:24 23,3 C 22,8 C 20,6 C 77 % 0 lf 1016,2 hPa 0,0 l/m 0 min 0 min 56 W/m 12,6 km/h (3 Bft) 97,87 %
29.09.2017 18:26 23,3 C 22,2 C 20,6 C 77 % 0 lf 1016,3 hPa 0,0 l/m 0 min 0 min 54 W/m 10,5 km/h (2 Bft) 97,87 %
29.09.2017 18:28 23,2 C 22,2 C 20,6 C 77 % 0 lf 1016,3 hPa 0,0 l/m 0 min 0 min 51 W/m 14,6 km/h (3 Bft) 97,83 %
29.09.2017 18:30 23,2 C 22,2 C 20,6 C 77 % 0 lf 1016,3 hPa 0,0 l/m 0 min 0 min 46 W/m 10,5 km/h (2 Bft) 95,74 %
29.09.2017 18:32 23,2 C 22,2 C 20,6 C 77 % 0 lf 1016,3 hPa 0,0 l/m 0 min 0 min 42 W/m 10,5 km/h (2 Bft) 93,62 %
29.09.2017 18:34 23,1 C 22,2 C 20,6 C 77 % 0 lf 1016,3 hPa 0,0 l/m 0 min 0 min 39 W/m 8,4 km/h (2 Bft) 95,74 %
29.09.2017 18:36 23,1 C 22,2 C 20,0 C 77 % 0 lf 1016,3 hPa 0,0 l/m 0 min 0 min 36 W/m 8,4 km/h (2 Bft) 97,87 %
29.09.2017 18:38 23,0 C 21,7 C 20,0 C 78 % 0 lf 1016,3 hPa 0,0 l/m 0 min 0 min 35 W/m 8,4 km/h (2 Bft) 97,87 %
29.09.2017 18:40 22,9 C 21,7 C 20,0 C 78 % 0 lf 1016,2 hPa 0,0 l/m 0 min 0 min 35 W/m 16,7 km/h (3 Bft) 97,83 %
29.09.2017 18:42 22,9 C 21,7 C 20,0 C 78 % 0 lf 1016,2 hPa 0,0 l/m 0 min 0 min 34 W/m 14,6 km/h (3 Bft) 97,87 %
29.09.2017 18:44 22,8 C 21,7 C 20,0 C 78 % 0 lf 1016,2 hPa 0,0 l/m 0 min 0 min 32 W/m 12,6 km/h (3 Bft) 95,74 %
29.09.2017 18:46 22,8 C 21,7 C 20,0 C 79 % 0 lf 1016,2 hPa 0,0 l/m 0 min 0 min 30 W/m 12,6 km/h (3 Bft) 95,74 %
29.09.2017 18:48 22,7 C 21,7 C 20,0 C 79 % 0 lf 1016,2 hPa 0,0 l/m 0 min 0 min 29 W/m 12,6 km/h (3 Bft) 93,62 %
29.09.2017 18:50 22,7 C 21,7 C 20,0 C 79 % 0 lf 1016,2 hPa 0,0 l/m 0 min 0 min 28 W/m 10,5 km/h (2 Bft) 93,62 %
29.09.2017 18:52 22,6 C 21,7 C 20,0 C 79 % 0 lf 1016,2 hPa 0,0 l/m 2 min 0 min 26 W/m 14,6 km/h (3 Bft) 95,65 %
29.09.2017 18:54 22,6 C 21,7 C 20,0 C 79 % 0 lf 1016,2 hPa 0,0 l/m 2 min 0 min 25 W/m 10,5 km/h (2 Bft) 100,00 %
29.09.2017 18:56 22,6 C 21,1 C 19,4 C 79 % 0 lf 1016,2 hPa 0,0 l/m 2 min 0 min 24 W/m 10,5 km/h (2 Bft) 95,74 %
29.09.2017 18:58 22,5 C 21,1 C 19,4 C 79 % 0 lf 1016,1 hPa 0,0 l/m 2 min 0 min 23 W/m 10,5 km/h (2 Bft) 97,87 %
29.09.2017 19:00 22,4 C 21,1 C 19,4 C 80 % 0 lf 1016,1 hPa 0,0 l/m 2 min 0 min 21 W/m 10,5 km/h (2 Bft) 97,87 %
29.09.2017 19:02 22,4 C 21,1 C 19,4 C 80 % 0 lf 1016,1 hPa 0,0 l/m 2 min 0 min 20 W/m 12,6 km/h (3 Bft) 95,74 %
29.09.2017 19:04 22,4 C 21,1 C 19,4 C 80 % 0 lf 1016,0 hPa 0,0 l/m 0 min 0 min 19 W/m 10,5 km/h (2 Bft) 97,83 %
29.09.2017 19:06 22,3 C 21,1 C 19,4 C 80 % 0 lf 1016,0 hPa 0,0 l/m 0 min 0 min 19 W/m 8,4 km/h (2 Bft) 97,87 %
29.09.2017 19:08 22,3 C 21,1 C 19,4 C 80 % 0 lf 1015,9 hPa 0,0 l/m 0 min 0 min 19 W/m 14,6 km/h (3 Bft) 97,87 %
29.09.2017 19:10 22,2 C 21,1 C 19,4 C 80 % 0 lf 1015,9 hPa 0,0 l/m 0 min 0 min 19 W/m 14,6 km/h (3 Bft) 97,87 %
29.09.2017 19:12 22,2 C 21,1 C 19,4 C 80 % 0 lf 1016,0 hPa 0,0 l/m 0 min 0 min 18 W/m 10,5 km/h (2 Bft) 93,62 %
29.09.2017 19:14 22,2 C 21,1 C 19,4 C 80 % 0 lf 1016,0 hPa 0,0 l/m 0 min 0 min 18 W/m 8,4 km/h (2 Bft) 97,87 %
29.09.2017 19:16 22,1 C 21,1 C 19,4 C 81 % 0 lf 1016,1 hPa 0,0 l/m 0 min 0 min 18 W/m 12,6 km/h (3 Bft) 97,83 %
29.09.2017 19:18 22,1 C 21,1 C 19,4 C 81 % 0 lf 1016,1 hPa 0,0 l/m 0 min 2 min 16 W/m 6,3 km/h (2 Bft) 97,87 %
29.09.2017 19:20 22,0 C 21,1 C 19,4 C 81 % 1 lf 1016,1 hPa 0,0 l/m 0 min 2 min 16 W/m 10,5 km/h (2 Bft) 97,87 %
29.09.2017 19:22 22,0 C 20,6 C 18,9 C 81 % 2 lf 1016,1 hPa 0,0 l/m 0 min 2 min 16 W/m 10,5 km/h (2 Bft) 95,74 %
29.09.2017 19:24 21,9 C 20,6 C 18,9 C 82 % 15 lf 1016,4 hPa 0,0 l/m 0 min 2 min 16 W/m 14,6 km/h (3 Bft) 93,62 %
29.09.2017 19:26 21,9 C 18,9 C 17,8 C 82 % 15 lf 1016,5 hPa 0,6 l/m 0 min 2 min 14 W/m 18,8 km/h (3 Bft) 97,83 %
29.09.2017 19:28 21,9 C 18,9 C 17,8 C 83 % 15 lf 1016,6 hPa 1,2 l/m 0 min 2 min 14 W/m 14,6 km/h (3 Bft) 97,87 %
29.09.2017 19:30 21,8 C 18,3 C 17,8 C 84 % 15 lf 1016,5 hPa 0,6 l/m 0 min 2 min 14 W/m 10,5 km/h (2 Bft) 97,87 %
29.09.2017 19:32 21,7 C 18,3 C 17,2 C 85 % 15 lf 1016,4 hPa 0,6 l/m 0 min 2 min 0 W/m 14,6 km/h (3 Bft) 97,87 %
29.09.2017 19:34 21,6 C 18,3 C 17,2 C 85 % 15 lf 1016,4 hPa 0,4 l/m 0 min 2 min 0 W/m 18,8 km/h (3 Bft) 97,87 %
29.09.2017 19:36 21,5 C 18,3 C 17,2 C 86 % 15 lf 1016,2 hPa 0,2 l/m 0 min 2 min 0 W/m 6,3 km/h (2 Bft) 97,87 %
29.09.2017 19:38 21,4 C 18,3 C 17,2 C 86 % 15 lf 1016,2 hPa 0,0 l/m 0 min 2 min 0 W/m 8,4 km/h (2 Bft) 97,83 %
29.09.2017 19:40 21,4 C 18,3 C 17,2 C 86 % 15 lf 1016,1 hPa 0,0 l/m 0 min 2 min 0 W/m 6,3 km/h (2 Bft) 97,87 %
29.09.2017 19:42 21,3 C 18,3 C 17,2 C 86 % 15 lf 1016,2 hPa 0,0 l/m 0 min 0 min 0 W/m 4,2 km/h (1 Bft) 97,87 %
29.09.2017 19:44 21,3 C 18,3 C 17,2 C 86 % 15 lf 1016,2 hPa 0,0 l/m 0 min 0 min 0 W/m 4,2 km/h (1 Bft) 93,62 %
29.09.2017 19:46 21,3 C 18,3 C 17,2 C 87 % 15 lf 1016,2 hPa 0,0 l/m 0 min 0 min 0 W/m 2,1 km/h (1 Bft) 95,74 %
29.09.2017 19:48 21,2 C 18,3 C 17,2 C 87 % 15 lf 1016,2 hPa 0,0 l/m 0 min 0 min 0 W/m 2,1 km/h (1 Bft) 95,74 %
29.09.2017 19:50 21,1 C 18,3 C 17,2 C 87 % 15 lf 1016,2 hPa 0,0 l/m 0 min 0 min 0 W/m 2,1 km/h (1 Bft) 97,87 %
29.09.2017 19:52 21,1 C 18,3 C 17,2 C 87 % 15 lf 1016,2 hPa 0,0 l/m 0 min 0 min 0 W/m 4,2 km/h (1 Bft) 95,65 %
29.09.2017 19:54 21,1 C 18,3 C 17,2 C 87 % 15 lf 1016,1 hPa 0,0 l/m 0 min 0 min 0 W/m 4,2 km/h (1 Bft) 91,49 %
29.09.2017 19:56 21,0 C 18,3 C 17,2 C 87 % 15 lf 1016,1 hPa 0,0 l/m 0 min 0 min 0 W/m 6,3 km/h (2 Bft) 95,74 %
29.09.2017 19:58 21,0 C 18,3 C 17,2 C 88 % 15 lf 1016,2 hPa 0,0 l/m 0 min 0 min 0 W/m 4,2 km/h (1 Bft) 93,62 %
29.09.2017 20:00 20,9 C 18,3 C 17,2 C 88 % 15 lf 1016,2 hPa 0,0 l/m 0 min 0 min 0 W/m 4,2 km/h (1 Bft) 95,74 %
29.09.2017 20:02 20,9 C 18,3 C 17,8 C 88 % 15 lf 1016,2 hPa 0,0 l/m 0 min 0 min 0 W/m 4,2 km/h (1 Bft) 95,65 %
29.09.2017 20:04 20,8 C 18,3 C 17,2 C 88 % 15 lf 1016,1 hPa 0,0 l/m 0 min 0 min 0 W/m 6,3 km/h (2 Bft) 95,74 %
29.09.2017 20:06 20,8 C 18,3 C 17,2 C 89 % 15 lf 1016,1 hPa 0,0 l/m 0 min 0 min 0 W/m 4,2 km/h (1 Bft) 93,62 %
29.09.2017 20:08 20,7 C 18,3 C 17,2 C 89 % 15 lf 1016,1 hPa 0,0 l/m 0 min 0 min 0 W/m 4,2 km/h (1 Bft) 91,49 %
29.09.2017 20:10 20,7 C 18,3 C 17,2 C 89 % 15 lf 1016,0 hPa 0,0 l/m 0 min 0 min 0 W/m 4,2 km/h (1 Bft) 93,62 %
29.09.2017 20:12 20,7 C 18,3 C 17,2 C 89 % 15 lf 1016,1 hPa 0,0 l/m 0 min 0 min 0 W/m 0,0 km/h (0 Bft) 91,49 %
29.09.2017 20:14 20,6 C 18,3 C 17,2 C 89 % 15 lf 1016,1 hPa 0,0 l/m 0 min 0 min 0 W/m 2,1 km/h (1 Bft) 91,30 %
29.09.2017 20:16 20,6 C 18,3 C 17,2 C 89 % 15 lf 1016,1 hPa 0,0 l/m 0 min 0 min 0 W/m 4,2 km/h (1 Bft) 93,62 %
29.09.2017 20:18 20,5 C 18,3 C 17,2 C 90 % 15 lf 1016,1 hPa 0,0 l/m 0 min 0 min 0 W/m 2,1 km/h (1 Bft) 95,74 %
29.09.2017 20:20 20,5 C 18,3 C 17,2 C 90 % 15 lf 1016,1 hPa 0,0 l/m 0 min 0 min 0 W/m 0,0 km/h (0 Bft) 93,62 %
29.09.2017 20:22 20,4 C 18,3 C 17,2 C 90 % 15 lf 1016,2 hPa 0,0 l/m 0 min 0 min 0 W/m 2,1 km/h (1 Bft) 91,49 %
29.09.2017 20:24 20,4 C 18,3 C 17,2 C 90 % 15 lf 1016,2 hPa 0,0 l/m 0 min 0 min 0 W/m 2,1 km/h (1 Bft) 91,49 %
29.09.2017 20:26 20,3 C 18,3 C 17,2 C 90 % 15 lf 1016,2 hPa 0,0 l/m 0 min 0 min 0 W/m 4,2 km/h (1 Bft) 93,48 %
29.09.2017 20:28 20,3 C 18,3 C 17,2 C 90 % 15 lf 1016,2 hPa 0,0 l/m 0 min 0 min 0 W/m 6,3 km/h (2 Bft) 91,49 %
29.09.2017 20:30 20,2 C 18,3 C 17,2 C 90 % 15 lf 1016,2 hPa 0,0 l/m 0 min 0 min 0 W/m 8,4 km/h (2 Bft) 91,49 %
29.09.2017 20:32 20,2 C 18,3 C 17,2 C 90 % 15 lf 1016,2 hPa 0,0 l/m 0 min 0 min 0 W/m 6,3 km/h (2 Bft) 95,74 %
29.09.2017 20:34 20,2 C 18,3 C 17,2 C 91 % 15 lf 1016,2 hPa 0,0 l/m 0 min 0 min 0 W/m 6,3 km/h (2 Bft) 93,62 %
29.09.2017 20:36 20,1 C 18,3 C 17,2 C 91 % 15 lf 1016,2 hPa 0,0 l/m 0 min 0 min 0 W/m 4,2 km/h (1 Bft) 95,74 %
29.09.2017 20:38 20,1 C 18,3 C 17,2 C 91 % 15 lf 1016,2 hPa 0,0 l/m 0 min 0 min 0 W/m 6,3 km/h (2 Bft) 93,48 %
29.09.2017 20:40 20,1 C 18,3 C 17,2 C 91 % 15 lf 1016,2 hPa 0,0 l/m 0 min 0 min 0 W/m 4,2 km/h (1 Bft) 95,74 %
29.09.2017 20:42 20,0 C 18,3 C 17,2 C 91 % 15 lf 1016,2 hPa 0,0 l/m 0 min 0 min 0 W/m 6,3 km/h (2 Bft) 97,87 %
29.09.2017 20:44 20,0 C 18,3 C 17,2 C 91 % 15 lf 1016,2 hPa 0,0 l/m 0 min 0 min 0 W/m 4,2 km/h (1 Bft) 97,87 %
29.09.2017 20:46 19,9 C 18,3 C 17,2 C 91 % 15 lf 1016,2 hPa 0,0 l/m 0 min 0 min 0 W/m 6,3 km/h (2 Bft) 95,74 %
29.09.2017 20:48 19,9 C 18,3 C 17,2 C 91 % 15 lf 1016,2 hPa 0,0 l/m 0 min 0 min 0 W/m 6,3 km/h (2 Bft) 97,87 %
29.09.2017 20:50 19,9 C 18,3 C 17,2 C 92 % 15 lf 1016,2 hPa 0,0 l/m 0 min 0 min 0 W/m 4,2 km/h (1 Bft) 97,83 %
29.09.2017 20:52 19,9 C 18,3 C 17,2 C 92 % 15 lf 1016,1 hPa 0,0 l/m 0 min 0 min 0 W/m 4,2 km/h (1 Bft) 100,00 %
29.09.2017 20:54 19,8 C 17,8 C 17,2 C 92 % 15 lf 1016,2 hPa 0,0 l/m 0 min 0 min 5 W/m 6,3 km/h (2 Bft) 100,00 %
29.09.2017 20:56 19,8 C 17,8 C 16,7 C 92 % 15 lf 1016,2 hPa 0,0 l/m 0 min 0 min 5 W/m 4,2 km/h (1 Bft) 100,00 %
29.09.2017 20:58 19,7 C 17,8 C 16,7 C 92 % 15 lf 1016,1 hPa 0,0 l/m 0 min 0 min 5 W/m 6,3 km/h (2 Bft) 100,00 %
29.09.2017 21:00 19,7 C 17,8 C 16,7 C 92 % 15 lf 1016,1 hPa 0,0 l/m 0 min 0 min 5 W/m 6,3 km/h (2 Bft) 100,00 %
29.09.2017 21:02 19,7 C 17,8 C 16,7 C 92 % 15 lf 1016,1 hPa 0,0 l/m 0 min 0 min 5 W/m 4,2 km/h (1 Bft) 97,83 %
29.09.2017 21:04 19,7 C 17,8 C 16,7 C 92 % 15 lf 1016,1 hPa 0,0 l/m 0 min 0 min 5 W/m 6,3 km/h (2 Bft) 97,87 %
29.09.2017 21:06 19,6 C 17,8 C 16,7 C 92 % 15 lf 1016,1 hPa 0,0 l/m 0 min 0 min 0 W/m 4,2 km/h (1 Bft) 100,00 %
29.09.2017 21:08 19,6 C 17,8 C 16,7 C 92 % 15 lf 1016,1 hPa 0,0 l/m 0 min 0 min 0 W/m 6,3 km/h (2 Bft) 100,00 %
29.09.2017 21:10 19,5 C 17,8 C 16,7 C 92 % 15 lf 1016,1 hPa 0,0 l/m 0 min 0 min 0 W/m 6,3 km/h (2 Bft) 97,87 %
29.09.2017 21:12 19,5 C 17,8 C 16,7 C 92 % 15 lf 1016,1 hPa 0,0 l/m 0 min 0 min 0 W/m 8,4 km/h (2 Bft) 97,83 %
29.09.2017 21:14 19,4 C 17,8 C 16,7 C 93 % 15 lf 1016,1 hPa 0,0 l/m 0 min 0 min 0 W/m 6,3 km/h (2 Bft) 97,87 %
29.09.2017 21:16 19,4 C 17,8 C 16,7 C 93 % 15 lf 1016,1 hPa 0,0 l/m 0 min 0 min 0 W/m 10,5 km/h (2 Bft) 97,87 %
29.09.2017 21:18 19,4 C 17,8 C 16,7 C 93 % 15 lf 1016,2 hPa 0,0 l/m 0 min 0 min 0 W/m 6,3 km/h (2 Bft) 100,00 %
29.09.2017 21:20 19,3 C 17,8 C 16,7 C 93 % 15 lf 1016,2 hPa 0,0 l/m 0 min 0 min 0 W/m 6,3 km/h (2 Bft) 100,00 %
29.09.2017 21:22 19,3 C 17,8 C 16,7 C 93 % 15 lf 1016,2 hPa 0,0 l/m 0 min 0 min 0 W/m 8,4 km/h (2 Bft) 97,87 %
29.09.2017 21:24 19,3 C 17,8 C 16,7 C 93 % 15 lf 1016,2 hPa 0,0 l/m 0 min 0 min 0 W/m 6,3 km/h (2 Bft) 97,83 %
29.09.2017 21:26 19,2 C 17,8 C 16,7 C 93 % 15 lf 1016,2 hPa 0,0 l/m 0 min 0 min 0 W/m 12,6 km/h (3 Bft) 100,00 %
29.09.2017 21:28 19,2 C 17,8 C 16,7 C 93 % 15 lf 1016,2 hPa 0,0 l/m 0 min 0 min 5 W/m 8,4 km/h (2 Bft) 100,00 %
29.09.2017 21:30 19,2 C 17,8 C 16,7 C 93 % 15 lf 1016,2 hPa 0,0 l/m 0 min 0 min 5 W/m 6,3 km/h (2 Bft) 100,00 %
29.09.2017 21:32 19,2 C 17,8 C 16,7 C 93 % 15 lf 1016,2 hPa 0,0 l/m 0 min 0 min 0 W/m 8,4 km/h (2 Bft) 97,87 %
29.09.2017 21:34 19,2 C 17,8 C 16,7 C 93 % 15 lf 1016,2 hPa 0,0 l/m 0 min 0 min 0 W/m 8,4 km/h (2 Bft) 100,00 %
29.09.2017 21:36 19,1 C 17,8 C 16,7 C 93 % 15 lf 1016,2 hPa 0,0 l/m 0 min 0 min 0 W/m 8,4 km/h (2 Bft) 100,00 %
29.09.2017 21:38 19,1 C 17,8 C 16,7 C 93 % 15 lf 1016,2 hPa 0,0 l/m 0 min 0 min 0 W/m 8,4 km/h (2 Bft) 95,74 %
29.09.2017 21:40 19,1 C 17,8 C 16,7 C 93 % 15 lf 1016,3 hPa 0,0 l/m 0 min 0 min 5 W/m 6,3 km/h (2 Bft) 97,87 %
29.09.2017 21:42 19,1 C 17,8 C 16,7 C 93 % 15 lf 1016,2 hPa 0,0 l/m 0 min 0 min 5 W/m 8,4 km/h (2 Bft) 97,87 %
29.09.2017 21:44 19,1 C 17,8 C 16,7 C 93 % 15 lf 1016,2 hPa 0,0 l/m 0 min 0 min 5 W/m 8,4 km/h (2 Bft) 97,87 %
29.09.2017 21:46 19,0 C 17,8 C 16,7 C 94 % 15 lf 1016,3 hPa 0,0 l/m 0 min 0 min 5 W/m 6,3 km/h (2 Bft) 100,00 %
29.09.2017 21:48 19,0 C 17,8 C 16,7 C 94 % 15 lf 1016,2 hPa 0,0 l/m 0 min 0 min 5 W/m 8,4 km/h (2 Bft) 100,00 %
29.09.2017 21:50 19,0 C 17,8 C 16,7 C 94 % 15 lf 1016,2 hPa 0,0 l/m 0 min 0 min 5 W/m 8,4 km/h (2 Bft) 95,74 %
29.09.2017 21:52 19,0 C 17,8 C 16,7 C 94 % 15 lf 1016,2 hPa 0,0 l/m 0 min 0 min 5 W/m 8,4 km/h (2 Bft) 100,00 %
29.09.2017 21:54 18,9 C 17,8 C 16,7 C 94 % 15 lf 1016,2 hPa 0,0 l/m 0 min 0 min 0 W/m 6,3 km/h (2 Bft) 100,00 %
29.09.2017 21:56 18,9 C 17,8 C 16,7 C 94 % 15 lf 1016,3 hPa 0,0 l/m 0 min 0 min 0 W/m 10,5 km/h (2 Bft) 91,49 %
29.09.2017 21:58 18,9 C 17,8 C 16,7 C 94 % 15 lf 1016,3 hPa 0,0 l/m 0 min 0 min 0 W/m 8,4 km/h (2 Bft) 97,87 %
29.09.2017 22:00 18,9 C 17,8 C 16,7 C 94 % 15 lf 1016,3 hPa 0,0 l/m 0 min 0 min 0 W/m 8,4 km/h (2 Bft) 97,83 %
29.09.2017 22:02 18,9 C 17,8 C 16,7 C 94 % 15 lf 1016,3 hPa 0,0 l/m 0 min 0 min 0 W/m 8,4 km/h (2 Bft) 100,00 %
29.09.2017 22:04 18,9 C 17,8 C 16,7 C 94 % 15 lf 1016,2 hPa 0,0 l/m 0 min 0 min 0 W/m 8,4 km/h (2 Bft) 97,87 %
29.09.2017 22:06 18,9 C 17,8 C 16,7 C 94 % 15 lf 1016,2 hPa 0,0 l/m 0 min 0 min 0 W/m 12,6 km/h (3 Bft) 100,00 %
29.09.2017 22:08 18,8 C 17,8 C 16,7 C 94 % 15 lf 1016,2 hPa 0,0 l/m 0 min 0 min 0 W/m 8,4 km/h (2 Bft) 100,00 %
29.09.2017 22:10 18,8 C 17,8 C 16,7 C 94 % 15 lf 1016,3 hPa 0,0 l/m 0 min 0 min 0 W/m 12,6 km/h (3 Bft) 100,00 %
29.09.2017 22:12 18,8 C 17,8 C 16,7 C 94 % 15 lf 1016,2 hPa 0,0 l/m 0 min 0 min 0 W/m 10,5 km/h (2 Bft) 100,00 %
29.09.2017 22:14 18,8 C 17,8 C 16,7 C 94 % 15 lf 1016,3 hPa 0,0 l/m 0 min 0 min 0 W/m 12,6 km/h (3 Bft) 97,87 %
29.09.2017 22:16 18,8 C 17,8 C 16,7 C 94 % 15 lf 1016,3 hPa 0,0 l/m 0 min 0 min 0 W/m 10,5 km/h (2 Bft) 100,00 %
29.09.2017 22:18 18,8 C 17,8 C 16,7 C 94 % 15 lf 1016,3 hPa 0,0 l/m 0 min 0 min 0 W/m 12,6 km/h (3 Bft) 97,87 %
29.09.2017 22:20 18,8 C 17,8 C 16,7 C 94 % 15 lf 1016,3 hPa 0,0 l/m 0 min 0 min 0 W/m 8,4 km/h (2 Bft) 97,87 %
29.09.2017 22:22 18,8 C 17,8 C 16,7 C 94 % 15 lf 1016,3 hPa 0,0 l/m 0 min 0 min 0 W/m 10,5 km/h (2 Bft) 95,74 %
29.09.2017 22:24 18,8 C 17,8 C 16,7 C 94 % 15 lf 1016,3 hPa 0,0 l/m 0 min 0 min 0 W/m 10,5 km/h (2 Bft) 91,30 %
29.09.2017 22:26 18,8 C 18,3 C 17,2 C 94 % 15 lf 1016,3 hPa 0,0 l/m 0 min 0 min 0 W/m 10,5 km/h (2 Bft) 95,74 %
29.09.2017 22:28 18,8 C 18,3 C 17,2 C 94 % 15 lf 1016,3 hPa 0,0 l/m 0 min 0 min 0 W/m 14,6 km/h (3 Bft) 97,87 %
29.09.2017 22:30 18,8 C 18,3 C 17,2 C 94 % 15 lf 1016,2 hPa 0,0 l/m 0 min 0 min 0 W/m 10,5 km/h (2 Bft) 91,49 %
29.09.2017 22:32 18,8 C 18,3 C 17,2 C 94 % 15 lf 1016,3 hPa 0,0 l/m 0 min 0 min 0 W/m 10,5 km/h (2 Bft) 93,62 %
29.09.2017 22:34 18,8 C 18,3 C 17,2 C 94 % 15 lf 1016,3 hPa 0,0 l/m 0 min 0 min 0 W/m 10,5 km/h (2 Bft) 93,62 %
29.09.2017 22:36 18,8 C 18,3 C 17,2 C 94 % 15 lf 1016,3 hPa 0,0 l/m 0 min 0 min 0 W/m 12,6 km/h (3 Bft) 91,30 %
29.09.2017 22:38 18,8 C 18,9 C 17,2 C 94 % 15 lf 1016,2 hPa 0,0 l/m 0 min 0 min 0 W/m 12,6 km/h (3 Bft) 93,62 %
29.09.2017 22:40 18,8 C 18,9 C 17,2 C 94 % 15 lf 1016,3 hPa 0,0 l/m 0 min 0 min 0 W/m 10,5 km/h (2 Bft) 89,36 %
29.09.2017 22:42 18,8 C 18,9 C 16,7 C 94 % 15 lf 1016,3 hPa 0,0 l/m 0 min 0 min 0 W/m 12,6 km/h (3 Bft) 93,62 %
29.09.2017 22:44 18,8 C 18,9 C 16,7 C 94 % 15 lf 1016,3 hPa 0,0 l/m 0 min 0 min 0 W/m 10,5 km/h (2 Bft) 93,62 %
29.09.2017 22:46 18,8 C 18,9 C 16,7 C 94 % 14 lf 1016,2 hPa 0,0 l/m 0 min 0 min 0 W/m 12,6 km/h (3 Bft) 93,48 %
29.09.2017 22:48 18,8 C 18,9 C 16,7 C 94 % 14 lf 1016,3 hPa 0,0 l/m 0 min 0 min 0 W/m 10,5 km/h (2 Bft) 87,23 %
29.09.2017 22:50 18,8 C 18,9 C 16,7 C 94 % 13 lf 1016,3 hPa 0,0 l/m 0 min 0 min 0 W/m 10,5 km/h (2 Bft) 91,49 %
29.09.2017 22:52 18,8 C 18,9 C 16,7 C 94 % 12 lf 1016,2 hPa 0,0 l/m 0 min 0 min 0 W/m 10,5 km/h (2 Bft) 93,62 %
29.09.2017 22:54 18,8 C 18,9 C 16,7 C 94 % 11 lf 1016,2 hPa 0,0 l/m 0 min 0 min 0 W/m 12,6 km/h (3 Bft) 91,49 %
29.09.2017 22:56 18,8 C 18,9 C 16,7 C 93 % 9 lf 1016,3 hPa 0,0 l/m 0 min 0 min 0 W/m 10,5 km/h (2 Bft) 89,36 %
29.09.2017 22:58 18,9 C 18,9 C 16,7 C 93 % 8 lf 1016,3 hPa 0,0 l/m 0 min 0 min 0 W/m 8,4 km/h (2 Bft) 95,65 %
29.09.2017 23:00 18,9 C 18,9 C 16,7 C 93 % 6 lf 1016,2 hPa 0,0 l/m 0 min 0 min 0 W/m 10,5 km/h (2 Bft) 93,62 %
29.09.2017 23:02 18,9 C 18,9 C 16,7 C 93 % 4 lf 1016,2 hPa 0,0 l/m 0 min 0 min 0 W/m 10,5 km/h (2 Bft) 91,49 %
29.09.2017 23:04 18,9 C 18,9 C 16,7 C 93 % 3 lf 1016,1 hPa 0,0 l/m 0 min 0 min 0 W/m 6,3 km/h (2 Bft) 87,23 %
29.09.2017 23:06 18,9 C 18,9 C 16,7 C 93 % 3 lf 1016,1 hPa 0,0 l/m 0 min 0 min 0 W/m 8,4 km/h (2 Bft) 93,62 %
29.09.2017 23:08 18,9 C 18,9 C 16,7 C 93 % 2 lf 1016,1 hPa 0,0 l/m 0 min 0 min 0 W/m 6,3 km/h (2 Bft) 93,62 %
29.09.2017 23:10 18,9 C 18,9 C 16,7 C 93 % 1 lf 1016,1 hPa 0,0 l/m 0 min 0 min 0 W/m 6,3 km/h (2 Bft) 93,48 %
29.09.2017 23:14 18,9 C 18,3 C 16,7 C 93 % 1 lf 1016,1 hPa 0,0 l/m 0 min 0 min 0 W/m 4,2 km/h (1 Bft) 96,15 %
29.09.2017 23:16 18,9 C 18,3 C 16,7 C 93 % 1 lf 1016,1 hPa 0,0 l/m 0 min 0 min 0 W/m 4,2 km/h (1 Bft) 93,62 %
29.09.2017 23:18 18,9 C 18,3 C 16,7 C 93 % 1 lf 1016,1 hPa 0,0 l/m 0 min 0 min 0 W/m 0,0 km/h (0 Bft) 93,62 %
29.09.2017 23:20 18,9 C 18,3 C 16,7 C 93 % 1 lf 1016,1 hPa 0,0 l/m 0 min 0 min 0 W/m 0,0 km/h (0 Bft) 97,83 %
29.09.2017 23:22 18,9 C 18,3 C 16,7 C 93 % 1 lf 1016,1 hPa 0,0 l/m 0 min 0 min 0 W/m 0,0 km/h (0 Bft) 93,62 %
29.09.2017 23:24 18,9 C 18,3 C 16,7 C 93 % 1 lf 1016,1 hPa 0,0 l/m 0 min 0 min 0 W/m 0,0 km/h (0 Bft) 95,74 %
29.09.2017 23:26 18,9 C 17,8 C 16,7 C 93 % 1 lf 1016,1 hPa 0,0 l/m 0 min 0 min 0 W/m 0,0 km/h (0 Bft) 97,87 %
29.09.2017 23:28 18,9 C 17,8 C 16,7 C 93 % 1 lf 1016,1 hPa 0,0 l/m 0 min 0 min 0 W/m 0,0 km/h (0 Bft) 95,74 %
29.09.2017 23:30 18,9 C 17,8 C 16,1 C 93 % 1 lf 1016,0 hPa 0,0 l/m 0 min 0 min 0 W/m 0,0 km/h (0 Bft) 93,62 %
29.09.2017 23:32 18,9 C 17,8 C 16,1 C 93 % 1 lf 1016,1 hPa 0,0 l/m 0 min 0 min 0 W/m 0,0 km/h (0 Bft) 95,65 %
29.09.2017 23:34 18,9 C 17,8 C 16,1 C 93 % 1 lf 1016,1 hPa 0,0 l/m 0 min 0 min 0 W/m 0,0 km/h (0 Bft) 95,74 %
29.09.2017 23:36 18,9 C 17,8 C 16,1 C 93 % 1 lf 1016,1 hPa 0,0 l/m 0 min 0 min 0 W/m 0,0 km/h (0 Bft) 97,87 %
29.09.2017 23:38 18,8 C 17,8 C 16,1 C 93 % 2 lf 1016,1 hPa 0,0 l/m 0 min 0 min 0 W/m 0,0 km/h (0 Bft) 100,00 %
29.09.2017 23:40 18,8 C 17,8 C 16,1 C 93 % 2 lf 1016,1 hPa 0,0 l/m 0 min 0 min 0 W/m 0,0 km/h (0 Bft) 95,74 %
29.09.2017 23:42 18,8 C 17,8 C 16,1 C 93 % 2 lf 1016,1 hPa 0,0 l/m 0 min 0 min 0 W/m 0,0 km/h (0 Bft) 100,00 %
29.09.2017 23:44 18,8 C 17,8 C 16,1 C 93 % 2 lf 1016,1 hPa 0,0 l/m 0 min 0 min 0 W/m 0,0 km/h (0 Bft) 100,00 %
29.09.2017 23:46 18,8 C 17,8 C 16,1 C 93 % 2 lf 1016,1 hPa 0,0 l/m 0 min 0 min 0 W/m 0,0 km/h (0 Bft) 97,87 %
29.09.2017 23:48 18,8 C 17,8 C 16,1 C 93 % 2 lf 1016,1 hPa 0,0 l/m 0 min 0 min 0 W/m 0,0 km/h (0 Bft) 100,00 %
29.09.2017 23:50 18,8 C 17,8 C 16,1 C 93 % 2 lf 1016,1 hPa 0,0 l/m 0 min 0 min 0 W/m 0,0 km/h (0 Bft) 100,00 %
29.09.2017 23:52 18,8 C 17,8 C 16,1 C 93 % 2 lf 1016,1 hPa 0,0 l/m 0 min 0 min 0 W/m 0,0 km/h (0 Bft) 97,87 %
29.09.2017 23:54 18,8 C 17,8 C 16,1 C 93 % 2 lf 1016,1 hPa 0,0 l/m 0 min 0 min 0 W/m 0,0 km/h (0 Bft) 97,87 %
29.09.2017 23:56 18,8 C 17,8 C 16,1 C 93 % 2 lf 1016,1 hPa 0,0 l/m 0 min 0 min 0 W/m 0,0 km/h (0 Bft) 100,00 %
29.09.2017 23:58 18,7 C 17,8 C 16,1 C 93 % 2 lf 1016,1 hPa 0,0 l/m 0 min 0 min 0 W/m 0,0 km/h (0 Bft) 100,00 %
_ Min-Zeit 08:32 02:10 05:42 15:58 00:50 19:08 - - - - 02:52 17:24
Minimum _ 15,9 C 15,6 C 13,9 C 73 % 0 lf 1015,9 hPa - - - - 0,0 km/h (0 Bft) 87,23 %
_ Max-Zeit 16:04 10:40 12:32 09:04 01:40 00:02 19:28 12:10 01:38 13:06 11:32 00:18
Maximum _ 23,7 C 28,3 C 24,4 C 99 % 15 lf 1021,8 hPa 1,2 l/m 4 min 2 min 716 W/m 25,1 km/h
S (4 Bft)
100,00 %
Durchschnitt _ 19,3 C 19,9 C 17,9 C 89 % 7 lf 1018,8 hPa #4,0 l/m #10:30 h #1:10 h 311 W/m 9,9 km/h (2 Bft) 96,57 %
© 2017 W. Hausmann